GEFSGL_prec_meanprecacc_066.txt.gz
Total_Precipitation_Accumulation
0.22 0.23 0.21 0.20 0.19 0.17 0.16 0.16 0.15 0.13 0.11 0.10 0.08 0.07 0.06 0.05 0.05 0.06 0.06 0.06 0.07 0.07 0.07 0.07 0.08 0.08 0.08 0.08 0.08 0.09 0.09 0.14 0.18 0.09 0.04 0.04 0.07 0.10 0.12 0.16 0.15 0.14 0.12
0.15 0.13 0.13 0.13 0.12 0.11 0.11 0.11 0.10 0.09 0.08 0.08 0.08 0.07 0.06 0.06 0.07 0.07 0.07 0.07 0.08 0.08 0.07 0.07 0.07 0.08 0.09 0.08 0.08 0.08 0.09 0.14 0.22 0.21 0.12 0.09 0.10 0.12 0.16 0.17 0.12 0.10 0.13
0.11 0.10 0.10 0.10 0.10 0.10 0.10 0.09 0.09 0.09 0.08 0.07 0.06 0.05 0.04 0.04 0.05 0.06 0.06 0.07 0.06 0.06 0.06 0.05 0.05 0.06 0.08 0.08 0.10 0.11 0.13 0.15 0.22 0.26 0.17 0.13 0.11 0.10 0.17 0.19 0.19 0.22 0.14
0.10 0.10 0.11 0.11 0.10 0.10 0.10 0.09 0.07 0.06 0.05 0.04 0.03 0.03 0.03 0.03 0.03 0.03 0.03 0.03 0.03 0.03 0.03 0.04 0.05 0.06 0.10 0.13 0.13 0.14 0.18 0.20 0.21 0.23 0.20 0.14 0.13 0.13 0.23 0.31 0.28 0.23 0.18
0.12 0.12 0.12 0.11 0.09 0.08 0.07 0.06 0.05 0.04 0.03 0.02 0.02 0.02 0.02 0.02 0.01 0.01 0.01 0.01 0.01 0.01 0.02 0.03 0.04 0.07 0.12 0.15 0.16 0.18 0.22 0.26 0.26 0.29 0.26 0.21 0.16 0.20 0.29 0.34 0.31 0.22 0.16
0.15 0.14 0.12 0.10 0.09 0.07 0.05 0.04 0.04 0.03 0.03 0.02 0.02 0.01 0.01 0.01 0.00 0.00 0.00 0.00 0.01 0.02 0.04 0.05 0.04 0.05 0.07 0.09 0.11 0.15 0.22 0.29 0.33 0.37 0.34 0.28 0.21 0.28 0.37 0.41 0.41 0.35 0.25
0.18 0.16 0.15 0.13 0.10 0.08 0.05 0.03 0.03 0.02 0.02 0.01 0.01 0.01 0.02 0.01 0.00 0.00 0.00 0.00 0.02 0.05 0.07 0.08 0.06 0.06 0.10 0.12 0.11 0.09 0.12 0.18 0.32 0.45 0.45 0.35 0.32 0.38 0.51 0.52 0.46 0.43 0.36
0.21 0.18 0.14 0.11 0.09 0.06 0.03 0.02 0.02 0.01 0.01 0.02 0.02 0.02 0.04 0.02 0.00 0.00 0.00 0.01 0.04 0.06 0.07 0.08 0.11 0.14 0.13 0.10 0.08 0.08 0.13 0.23 0.33 0.39 0.44 0.40 0.41 0.47 0.57 0.58 0.51 0.43 0.32
0.18 0.13 0.09 0.07 0.05 0.03 0.02 0.02 0.02 0.02 0.02 0.02 0.02 0.03 0.05 0.05 0.01 0.00 0.00 0.02 0.03 0.03 0.04 0.05 0.09 0.12 0.12 0.11 0.11 0.14 0.18 0.27 0.30 0.41 0.48 0.54 0.59 0.58 0.54 0.51 0.54 0.53 0.44
0.09 0.05 0.04 0.04 0.02 0.02 0.02 0.02 0.02 0.02 0.02 0.02 0.02 0.03 0.06 0.08 0.02 0.00 0.01 0.02 0.03 0.03 0.03 0.06 0.09 0.09 0.11 0.12 0.12 0.20 0.28 0.33 0.47 0.62 0.72 0.77 0.72 0.64 0.57 0.54 0.59 0.62 0.60
0.04 0.03 0.04 0.03 0.03 0.02 0.02 0.03 0.03 0.03 0.05 0.05 0.05 0.05 0.07 0.05 0.02 0.00 0.01 0.03 0.05 0.06 0.08 0.13 0.17 0.14 0.14 0.12 0.14 0.24 0.37 0.46 0.67 0.89 0.89 0.74 0.58 0.49 0.46 0.47 0.48 0.54 0.60
0.04 0.04 0.04 0.03 0.01 0.01 0.04 0.05 0.04 0.06 0.07 0.07 0.07 0.07 0.07 0.07 0.04 0.01 0.01 0.02 0.04 0.09 0.17 0.19 0.21 0.20 0.17 0.17 0.23 0.36 0.46 0.63 0.82 0.92 0.80 0.61 0.48 0.41 0.37 0.35 0.36 0.41 0.46
0.07 0.07 0.05 0.04 0.02 0.02 0.04 0.05 0.06 0.06 0.06 0.06 0.06 0.06 0.06 0.07 0.06 0.01 0.01 0.02 0.04 0.09 0.19 0.24 0.26 0.24 0.26 0.36 0.45 0.54 0.64 0.76 0.86 0.79 0.63 0.54 0.46 0.39 0.35 0.33 0.32 0.35 0.38
0.10 0.09 0.08 0.07 0.04 0.03 0.03 0.03 0.05 0.05 0.06 0.06 0.06 0.06 0.07 0.08 0.07 0.05 0.05 0.05 0.08 0.12 0.19 0.31 0.41 0.45 0.48 0.56 0.63 0.70 0.75 0.81 0.76 0.62 0.51 0.46 0.40 0.35 0.34 0.31 0.30 0.31 0.34
0.10 0.09 0.08 0.05 0.04 0.05 0.05 0.02 0.02 0.03 0.01 0.03 0.05 0.05 0.08 0.08 0.07 0.08 0.09 0.11 0.15 0.20 0.23 0.35 0.46 0.51 0.55 0.59 0.59 0.64 0.67 0.65 0.63 0.55 0.48 0.41 0.37 0.33 0.33 0.31 0.30 0.28 0.31
0.07 0.07 0.07 0.04 0.04 0.05 0.07 0.08 0.03 0.01 0.00 0.01 0.02 0.04 0.05 0.08 0.07 0.06 0.09 0.13 0.18 0.24 0.30 0.43 0.54 0.59 0.61 0.61 0.59 0.59 0.60 0.57 0.53 0.49 0.47 0.42 0.38 0.34 0.34 0.32 0.30 0.29 0.31
0.04 0.06 0.05 0.05 0.05 0.05 0.07 0.13 0.16 0.09 0.02 0.01 0.02 0.04 0.05 0.07 0.07 0.06 0.08 0.13 0.16 0.23 0.29 0.43 0.58 0.70 0.71 0.65 0.59 0.56 0.61 0.61 0.58 0.54 0.48 0.43 0.37 0.33 0.30 0.30 0.29 0.28 0.28
0.04 0.05 0.04 0.06 0.05 0.05 0.06 0.09 0.15 0.18 0.16 0.12 0.07 0.05 0.06 0.08 0.10 0.10 0.11 0.14 0.17 0.21 0.31 0.45 0.57 0.64 0.66 0.66 0.60 0.58 0.61 0.63 0.60 0.52 0.46 0.42 0.37 0.31 0.27 0.29 0.28 0.23 0.21
0.03 0.05 0.04 0.03 0.04 0.04 0.05 0.06 0.08 0.11 0.15 0.16 0.13 0.09 0.08 0.10 0.14 0.15 0.15 0.15 0.19 0.25 0.33 0.41 0.49 0.51 0.49 0.50 0.49 0.49 0.53 0.57 0.53 0.44 0.40 0.38 0.34 0.29 0.27 0.26 0.23 0.17 0.16
0.02 0.01 0.01 0.02 0.03 0.03 0.03 0.05 0.05 0.08 0.12 0.15 0.13 0.10 0.11 0.15 0.20 0.21 0.17 0.14 0.16 0.20 0.27 0.36 0.42 0.40 0.38 0.36 0.34 0.33 0.36 0.39 0.36 0.33 0.31 0.29 0.29 0.27 0.24 0.21 0.18 0.16 0.15
0.01 0.01 0.01 0.01 0.02 0.03 0.02 0.02 0.03 0.05 0.08 0.11 0.10 0.09 0.14 0.17 0.22 0.25 0.26 0.24 0.22 0.22 0.23 0.25 0.30 0.33 0.32 0.29 0.25 0.22 0.23 0.24 0.24 0.25 0.26 0.26 0.25 0.23 0.18 0.14 0.11 0.09 0.09
0.00 0.01 0.01 0.02 0.02 0.02 0.01 0.00 0.01 0.02 0.04 0.07 0.08 0.09 0.14 0.15 0.18 0.21 0.27 0.32 0.31 0.29 0.25 0.23 0.23 0.26 0.29 0.28 0.22 0.18 0.17 0.18 0.20 0.23 0.24 0.24 0.21 0.17 0.13 0.10 0.07 0.05 0.05
0.00 0.00 0.00 0.01 0.00 0.00 0.00 0.00 0.00 0.01 0.03 0.05 0.07 0.09 0.10 0.13 0.16 0.20 0.25 0.30 0.32 0.31 0.26 0.22 0.22 0.25 0.27 0.27 0.23 0.17 0.14 0.14 0.16 0.18 0.23 0.23 0.19 0.14 0.10 0.07 0.04 0.04 0.03
0.00 0.00 0.00 0.00 0.00 0.00 0.00 0.00 0.00 0.00 0.01 0.02 0.04 0.06 0.09 0.12 0.14 0.17 0.21 0.25 0.29 0.30 0.29 0.27 0.26 0.26 0.25 0.24 0.21 0.13 0.10 0.11 0.12 0.14 0.18 0.20 0.17 0.12 0.08 0.06 0.04 0.03 0.02
0.00 0.00 0.00 0.00 0.00 0.00 0.00 0.00 0.00 0.00 0.00 0.01 0.02 0.03 0.04 0.06 0.09 0.11 0.15 0.19 0.22 0.25 0.25 0.24 0.24 0.22 0.20 0.17 0.14 0.10 0.09 0.11 0.12 0.12 0.14 0.15 0.12 0.10 0.08 0.06 0.04 0.03 0.03
0.00 0.00 0.00 0.00 0.00 0.00 0.00 0.00 0.00 0.00 0.01 0.01 0.01 0.02 0.02 0.03 0.04 0.06 0.08 0.09 0.12 0.16 0.19 0.20 0.20 0.17 0.12 0.08 0.07 0.07 0.07 0.05 0.05 0.06 0.10 0.13 0.11 0.09 0.08 0.07 0.04 0.03 0.02

GEFSGL_prec_meanprecacc_072.txt.gz
Total_Precipitation_Accumulation
0.23 0.25 0.23 0.22 0.22 0.20 0.20 0.21 0.20 0.18 0.16 0.14 0.12 0.11 0.10 0.10 0.10 0.11 0.11 0.11 0.12 0.12 0.12 0.12 0.12 0.12 0.12 0.11 0.11 0.12 0.12 0.17 0.22 0.12 0.06 0.06 0.08 0.11 0.14 0.17 0.16 0.14 0.12
0.15 0.14 0.14 0.14 0.13 0.13 0.13 0.13 0.12 0.12 0.12 0.11 0.11 0.11 0.11 0.11 0.11 0.12 0.12 0.11 0.12 0.12 0.11 0.11 0.11 0.11 0.13 0.12 0.12 0.12 0.13 0.19 0.27 0.25 0.16 0.12 0.12 0.14 0.17 0.18 0.12 0.11 0.13
0.11 0.10 0.10 0.11 0.11 0.11 0.11 0.11 0.11 0.11 0.10 0.09 0.08 0.08 0.07 0.07 0.08 0.08 0.09 0.09 0.09 0.08 0.08 0.08 0.07 0.08 0.10 0.10 0.12 0.13 0.16 0.18 0.25 0.29 0.20 0.15 0.12 0.11 0.18 0.21 0.20 0.24 0.15
0.11 0.11 0.12 0.12 0.11 0.11 0.11 0.10 0.09 0.07 0.06 0.05 0.05 0.04 0.04 0.04 0.05 0.04 0.04 0.04 0.04 0.04 0.04 0.05 0.05 0.07 0.11 0.14 0.13 0.15 0.19 0.22 0.23 0.26 0.22 0.16 0.14 0.14 0.26 0.34 0.31 0.26 0.19
0.13 0.13 0.13 0.11 0.10 0.09 0.08 0.07 0.05 0.04 0.03 0.03 0.03 0.02 0.02 0.02 0.01 0.01 0.01 0.01 0.01 0.02 0.03 0.04 0.05 0.07 0.13 0.15 0.16 0.18 0.23 0.27 0.28 0.31 0.28 0.23 0.19 0.24 0.34 0.38 0.34 0.24 0.17
0.16 0.14 0.12 0.10 0.09 0.08 0.06 0.05 0.04 0.04 0.03 0.03 0.02 0.02 0.02 0.01 0.00 0.00 0.00 0.01 0.02 0.03 0.05 0.06 0.05 0.05 0.07 0.09 0.11 0.15 0.22 0.29 0.34 0.38 0.36 0.31 0.26 0.33 0.42 0.44 0.44 0.39 0.28
0.19 0.17 0.16 0.13 0.11 0.08 0.05 0.04 0.04 0.04 0.03 0.03 0.02 0.03 0.03 0.02 0.00 0.00 0.00 0.01 0.04 0.07 0.09 0.09 0.07 0.07 0.11 0.14 0.11 0.10 0.13 0.20 0.34 0.46 0.48 0.39 0.37 0.43 0.55 0.55 0.49 0.47 0.38
0.21 0.19 0.15 0.12 0.10 0.07 0.04 0.04 0.03 0.04 0.04 0.04 0.04 0.04 0.07 0.03 0.00 0.00 0.00 0.02 0.05 0.08 0.09 0.10 0.13 0.17 0.15 0.10 0.08 0.10 0.18 0.31 0.38 0.42 0.48 0.44 0.44 0.49 0.58 0.59 0.53 0.45 0.35
0.19 0.14 0.10 0.08 0.06 0.04 0.04 0.04 0.04 0.05 0.05 0.04 0.04 0.05 0.09 0.08 0.01 0.00 0.00 0.02 0.04 0.06 0.06 0.08 0.11 0.16 0.12 0.11 0.11 0.16 0.23 0.34 0.33 0.42 0.48 0.55 0.59 0.58 0.54 0.51 0.56 0.58 0.49
0.10 0.06 0.05 0.05 0.04 0.04 0.04 0.04 0.05 0.05 0.06 0.05 0.05 0.07 0.10 0.11 0.02 0.00 0.01 0.03 0.05 0.05 0.08 0.14 0.12 0.10 0.11 0.12 0.12 0.21 0.31 0.37 0.49 0.65 0.77 0.82 0.77 0.68 0.58 0.56 0.63 0.67 0.66
0.05 0.04 0.05 0.04 0.04 0.04 0.04 0.06 0.06 0.07 0.09 0.09 0.09 0.10 0.11 0.07 0.03 0.00 0.01 0.03 0.05 0.07 0.13 0.22 0.24 0.14 0.14 0.12 0.14 0.25 0.38 0.46 0.68 0.93 0.97 0.83 0.69 0.59 0.54 0.53 0.56 0.62 0.67
0.05 0.05 0.06 0.04 0.02 0.02 0.06 0.08 0.08 0.10 0.12 0.12 0.12 0.12 0.12 0.10 0.05 0.02 0.01 0.02 0.04 0.10 0.22 0.25 0.24 0.20 0.17 0.17 0.23 0.37 0.46 0.64 0.86 1.00 0.90 0.71 0.58 0.49 0.44 0.41 0.44 0.49 0.53
0.08 0.08 0.06 0.05 0.03 0.03 0.05 0.07 0.09 0.11 0.11 0.09 0.09 0.09 0.09 0.11 0.09 0.02 0.01 0.02 0.04 0.10 0.22 0.26 0.26 0.24 0.27 0.39 0.46 0.55 0.64 0.80 0.94 0.89 0.75 0.65 0.56 0.47 0.42 0.40 0.40 0.43 0.45
0.13 0.11 0.10 0.09 0.05 0.04 0.04 0.04 0.07 0.08 0.08 0.08 0.08 0.08 0.09 0.11 0.09 0.06 0.05 0.07 0.09 0.14 0.22 0.33 0.44 0.48 0.51 0.60 0.68 0.76 0.82 0.88 0.84 0.72 0.61 0.57 0.50 0.44 0.42 0.38 0.38 0.40 0.41
0.11 0.10 0.09 0.06 0.05 0.06 0.06 0.03 0.03 0.04 0.02 0.03 0.05 0.06 0.09 0.10 0.07 0.08 0.09 0.11 0.15 0.20 0.24 0.38 0.55 0.62 0.67 0.71 0.71 0.76 0.79 0.75 0.73 0.67 0.60 0.53 0.47 0.43 0.41 0.38 0.38 0.36 0.38
0.08 0.08 0.07 0.04 0.04 0.06 0.09 0.10 0.03 0.01 0.00 0.01 0.02 0.04 0.05 0.08 0.07 0.06 0.09 0.13 0.18 0.25 0.31 0.48 0.63 0.68 0.70 0.70 0.67 0.67 0.68 0.65 0.61 0.58 0.57 0.52 0.48 0.43 0.42 0.39 0.38 0.37 0.39
0.05 0.06 0.05 0.05 0.06 0.06 0.09 0.17 0.20 0.11 0.03 0.01 0.02 0.04 0.05 0.07 0.07 0.06 0.08 0.13 0.17 0.23 0.32 0.50 0.67 0.77 0.78 0.72 0.65 0.62 0.67 0.67 0.64 0.60 0.55 0.51 0.45 0.41 0.38 0.37 0.34 0.34 0.35
0.04 0.05 0.04 0.07 0.06 0.05 0.07 0.11 0.18 0.22 0.20 0.15 0.07 0.05 0.06 0.08 0.10 0.10 0.11 0.14 0.20 0.26 0.37 0.51 0.63 0.68 0.70 0.70 0.64 0.61 0.64 0.67 0.64 0.56 0.51 0.47 0.42 0.37 0.34 0.36 0.33 0.27 0.26
0.03 0.05 0.04 0.03 0.04 0.04 0.05 0.07 0.10 0.13 0.18 0.20 0.18 0.11 0.09 0.10 0.14 0.16 0.16 0.18 0.24 0.29 0.36 0.45 0.53 0.54 0.51 0.52 0.51 0.51 0.55 0.59 0.54 0.45 0.41 0.41 0.37 0.33 0.32 0.33 0.27 0.18 0.19
0.02 0.01 0.01 0.02 0.03 0.03 0.04 0.05 0.06 0.10 0.15 0.19 0.17 0.13 0.13 0.19 0.25 0.25 0.19 0.17 0.18 0.21 0.29 0.37 0.43 0.41 0.38 0.37 0.34 0.33 0.36 0.39 0.37 0.34 0.32 0.30 0.30 0.30 0.27 0.25 0.22 0.19 0.18
0.02 0.01 0.01 0.01 0.03 0.03 0.02 0.02 0.03 0.06 0.09 0.13 0.12 0.09 0.14 0.20 0.27 0.29 0.29 0.26 0.24 0.23 0.24 0.26 0.30 0.33 0.32 0.29 0.25 0.22 0.23 0.24 0.24 0.25 0.26 0.26 0.26 0.24 0.20 0.16 0.13 0.10 0.10
0.00 0.01 0.01 0.02 0.02 0.02 0.01 0.01 0.01 0.03 0.06 0.09 0.10 0.09 0.14 0.17 0.21 0.24 0.29 0.33 0.32 0.29 0.25 0.23 0.23 0.26 0.29 0.28 0.22 0.18 0.17 0.18 0.20 0.23 0.24 0.24 0.22 0.18 0.14 0.11 0.08 0.06 0.05
0.00 0.00 0.00 0.01 0.00 0.00 0.00 0.00 0.01 0.01 0.04 0.06 0.08 0.10 0.11 0.16 0.18 0.21 0.25 0.30 0.33 0.31 0.26 0.22 0.22 0.25 0.27 0.27 0.23 0.17 0.14 0.14 0.16 0.18 0.23 0.23 0.19 0.15 0.11 0.08 0.05 0.04 0.03
0.00 0.00 0.00 0.00 0.00 0.00 0.00 0.00 0.00 0.00 0.01 0.02 0.04 0.07 0.10 0.14 0.15 0.17 0.21 0.25 0.29 0.30 0.29 0.27 0.26 0.26 0.25 0.24 0.21 0.13 0.10 0.11 0.12 0.14 0.18 0.20 0.17 0.13 0.08 0.06 0.04 0.03 0.02
0.00 0.00 0.00 0.00 0.00 0.00 0.00 0.00 0.00 0.00 0.01 0.01 0.02 0.03 0.05 0.07 0.10 0.11 0.15 0.19 0.22 0.25 0.25 0.24 0.24 0.22 0.20 0.17 0.14 0.10 0.09 0.11 0.12 0.12 0.14 0.15 0.12 0.10 0.08 0.06 0.04 0.03 0.03
0.00 0.00 0.00 0.00 0.00 0.00 0.00 0.01 0.01 0.01 0.01 0.01 0.01 0.02 0.02 0.03 0.05 0.07 0.08 0.09 0.12 0.16 0.19 0.20 0.20 0.17 0.12 0.08 0.07 0.07 0.07 0.05 0.05 0.06 0.10 0.13 0.11 0.09 0.08 0.07 0.04 0.03 0.02

GEFSGL_prec_meanprecacc_078.txt.gz
Total_Precipitation_Accumulation
0.24 0.26 0.24 0.23 0.23 0.21 0.21 0.22 0.20 0.18 0.16 0.15 0.13 0.12 0.11 0.11 0.11 0.12 0.12 0.13 0.13 0.14 0.14 0.14 0.14 0.14 0.14 0.13 0.13 0.14 0.15 0.20 0.25 0.15 0.09 0.08 0.11 0.14 0.16 0.19 0.18 0.16 0.14
0.16 0.14 0.14 0.14 0.14 0.13 0.13 0.13 0.13 0.12 0.12 0.11 0.11 0.11 0.11 0.11 0.12 0.12 0.13 0.13 0.14 0.14 0.13 0.13 0.12 0.13 0.14 0.13 0.13 0.12 0.14 0.19 0.28 0.26 0.17 0.13 0.13 0.15 0.18 0.20 0.14 0.12 0.14
0.11 0.11 0.11 0.11 0.11 0.11 0.11 0.11 0.11 0.11 0.10 0.09 0.08 0.08 0.08 0.08 0.08 0.09 0.09 0.10 0.10 0.10 0.09 0.09 0.09 0.09 0.11 0.11 0.12 0.13 0.16 0.18 0.25 0.29 0.20 0.15 0.12 0.11 0.18 0.21 0.20 0.24 0.15
0.11 0.11 0.12 0.12 0.11 0.11 0.11 0.10 0.09 0.07 0.06 0.05 0.05 0.04 0.05 0.05 0.05 0.05 0.04 0.04 0.04 0.04 0.04 0.05 0.05 0.07 0.11 0.14 0.13 0.15 0.19 0.22 0.23 0.26 0.22 0.16 0.14 0.15 0.26 0.34 0.31 0.26 0.19
0.13 0.13 0.13 0.11 0.10 0.09 0.08 0.07 0.05 0.04 0.03 0.03 0.03 0.03 0.02 0.02 0.01 0.01 0.01 0.01 0.02 0.02 0.03 0.04 0.05 0.07 0.13 0.15 0.16 0.18 0.23 0.27 0.28 0.31 0.28 0.23 0.19 0.25 0.34 0.38 0.34 0.24 0.17
0.16 0.14 0.13 0.11 0.09 0.08 0.06 0.05 0.04 0.04 0.03 0.03 0.02 0.02 0.02 0.01 0.00 0.00 0.00 0.01 0.02 0.03 0.05 0.06 0.05 0.05 0.07 0.09 0.11 0.15 0.22 0.29 0.34 0.38 0.36 0.31 0.26 0.34 0.42 0.44 0.44 0.39 0.28
0.19 0.17 0.16 0.13 0.11 0.09 0.06 0.05 0.04 0.04 0.03 0.03 0.02 0.03 0.03 0.02 0.00 0.00 0.00 0.01 0.04 0.07 0.09 0.09 0.07 0.07 0.12 0.14 0.11 0.10 0.13 0.20 0.34 0.47 0.48 0.39 0.37 0.43 0.55 0.55 0.49 0.47 0.38
0.22 0.19 0.15 0.12 0.10 0.07 0.05 0.04 0.03 0.04 0.04 0.04 0.04 0.04 0.07 0.03 0.00 0.00 0.00 0.02 0.06 0.08 0.09 0.10 0.14 0.18 0.15 0.10 0.08 0.10 0.18 0.31 0.39 0.43 0.49 0.44 0.44 0.49 0.58 0.59 0.53 0.46 0.36
0.20 0.14 0.10 0.09 0.07 0.05 0.04 0.04 0.04 0.05 0.05 0.05 0.04 0.06 0.09 0.08 0.01 0.00 0.00 0.02 0.05 0.06 0.06 0.08 0.11 0.16 0.13 0.11 0.11 0.16 0.23 0.34 0.34 0.42 0.49 0.55 0.59 0.59 0.54 0.51 0.57 0.58 0.50
0.11 0.07 0.05 0.05 0.04 0.04 0.04 0.04 0.05 0.05 0.06 0.06 0.05 0.07 0.10 0.11 0.02 0.00 0.01 0.03 0.05 0.05 0.08 0.14 0.13 0.10 0.11 0.12 0.12 0.21 0.32 0.37 0.49 0.66 0.77 0.83 0.78 0.70 0.59 0.56 0.64 0.68 0.67
0.05 0.05 0.05 0.05 0.04 0.04 0.04 0.06 0.07 0.07 0.10 0.10 0.09 0.10 0.11 0.07 0.03 0.00 0.01 0.03 0.05 0.07 0.13 0.22 0.24 0.14 0.14 0.12 0.14 0.25 0.39 0.47 0.68 0.94 0.98 0.86 0.72 0.61 0.55 0.54 0.57 0.62 0.67
0.05 0.06 0.06 0.04 0.02 0.02 0.06 0.08 0.08 0.11 0.12 0.12 0.12 0.12 0.12 0.10 0.05 0.02 0.01 0.02 0.04 0.10 0.22 0.25 0.24 0.21 0.18 0.17 0.23 0.37 0.46 0.64 0.87 1.02 0.93 0.75 0.59 0.50 0.45 0.42 0.45 0.50 0.53
0.08 0.09 0.07 0.05 0.03 0.03 0.05 0.08 0.09 0.11 0.11 0.09 0.09 0.09 0.09 0.11 0.09 0.02 0.01 0.02 0.04 0.10 0.22 0.26 0.26 0.25 0.28 0.40 0.47 0.55 0.65 0.81 0.95 0.92 0.77 0.67 0.57 0.48 0.43 0.40 0.40 0.43 0.45
0.13 0.11 0.10 0.09 0.05 0.04 0.05 0.04 0.07 0.08 0.08 0.08 0.08 0.08 0.09 0.11 0.09 0.06 0.05 0.07 0.09 0.14 0.22 0.33 0.44 0.48 0.52 0.61 0.69 0.77 0.82 0.89 0.84 0.73 0.62 0.58 0.51 0.45 0.42 0.39 0.39 0.40 0.41
0.12 0.10 0.09 0.06 0.05 0.07 0.07 0.03 0.03 0.04 0.02 0.03 0.05 0.06 0.09 0.10 0.07 0.08 0.09 0.11 0.15 0.20 0.24 0.38 0.56 0.63 0.68 0.73 0.73 0.77 0.79 0.76 0.74 0.68 0.61 0.53 0.47 0.43 0.41 0.38 0.39 0.36 0.39
0.08 0.08 0.07 0.05 0.05 0.07 0.10 0.10 0.03 0.01 0.00 0.01 0.02 0.04 0.05 0.08 0.07 0.06 0.09 0.13 0.18 0.25 0.31 0.48 0.63 0.68 0.70 0.71 0.68 0.68 0.69 0.65 0.61 0.59 0.58 0.53 0.48 0.44 0.42 0.39 0.38 0.37 0.39
0.05 0.06 0.06 0.05 0.06 0.07 0.09 0.17 0.20 0.11 0.03 0.01 0.02 0.04 0.05 0.07 0.07 0.06 0.08 0.13 0.17 0.24 0.32 0.51 0.67 0.78 0.78 0.72 0.65 0.62 0.67 0.68 0.64 0.60 0.56 0.52 0.46 0.41 0.39 0.37 0.35 0.34 0.35
0.04 0.05 0.04 0.07 0.06 0.06 0.07 0.11 0.18 0.22 0.20 0.15 0.07 0.05 0.06 0.08 0.10 0.10 0.11 0.14 0.21 0.26 0.37 0.51 0.63 0.68 0.70 0.70 0.64 0.61 0.64 0.67 0.64 0.57 0.51 0.48 0.42 0.38 0.35 0.36 0.33 0.27 0.26
0.03 0.05 0.04 0.04 0.04 0.04 0.05 0.07 0.10 0.13 0.18 0.20 0.18 0.11 0.09 0.10 0.14 0.16 0.16 0.18 0.24 0.29 0.36 0.45 0.53 0.54 0.51 0.52 0.51 0.51 0.55 0.59 0.54 0.45 0.42 0.41 0.38 0.33 0.33 0.33 0.28 0.18 0.19
0.02 0.02 0.01 0.02 0.03 0.03 0.04 0.05 0.06 0.10 0.15 0.19 0.17 0.13 0.13 0.19 0.26 0.25 0.19 0.17 0.18 0.22 0.29 0.37 0.43 0.41 0.38 0.37 0.34 0.33 0.36 0.39 0.37 0.34 0.32 0.31 0.31 0.30 0.28 0.25 0.22 0.19 0.18
0.02 0.02 0.01 0.01 0.03 0.03 0.02 0.02 0.03 0.06 0.10 0.14 0.12 0.09 0.14 0.20 0.27 0.29 0.29 0.26 0.24 0.23 0.24 0.26 0.30 0.33 0.32 0.29 0.25 0.22 0.23 0.24 0.24 0.25 0.26 0.26 0.26 0.25 0.20 0.16 0.13 0.10 0.10
0.01 0.01 0.01 0.02 0.02 0.02 0.01 0.01 0.01 0.03 0.06 0.09 0.11 0.09 0.14 0.17 0.21 0.24 0.29 0.33 0.32 0.29 0.25 0.23 0.23 0.26 0.29 0.28 0.22 0.18 0.17 0.18 0.20 0.23 0.24 0.24 0.22 0.18 0.14 0.11 0.08 0.06 0.05
0.00 0.00 0.00 0.01 0.00 0.00 0.00 0.00 0.01 0.01 0.04 0.06 0.08 0.10 0.11 0.16 0.18 0.21 0.25 0.30 0.33 0.31 0.26 0.22 0.22 0.25 0.27 0.27 0.23 0.17 0.14 0.14 0.16 0.18 0.23 0.23 0.19 0.15 0.11 0.08 0.05 0.04 0.03
0.00 0.00 0.00 0.00 0.00 0.00 0.00 0.00 0.00 0.00 0.01 0.02 0.05 0.07 0.10 0.14 0.15 0.17 0.21 0.25 0.29 0.30 0.29 0.27 0.26 0.26 0.25 0.24 0.21 0.13 0.10 0.11 0.12 0.14 0.18 0.20 0.17 0.13 0.08 0.06 0.04 0.03 0.02
0.00 0.00 0.00 0.00 0.00 0.00 0.00 0.00 0.00 0.00 0.01 0.01 0.02 0.03 0.05 0.07 0.10 0.11 0.15 0.19 0.22 0.25 0.25 0.24 0.24 0.22 0.20 0.17 0.14 0.10 0.09 0.11 0.12 0.12 0.14 0.15 0.12 0.10 0.08 0.06 0.04 0.03 0.03
0.00 0.00 0.00 0.00 0.00 0.00 0.00 0.01 0.01 0.01 0.01 0.01 0.01 0.02 0.02 0.03 0.05 0.07 0.08 0.09 0.12 0.16 0.19 0.20 0.20 0.17 0.12 0.08 0.07 0.07 0.07 0.05 0.05 0.06 0.10 0.13 0.11 0.09 0.08 0.07 0.04 0.03 0.02

GEFSGL_prec_meanprecacc_084.txt.gz
Total_Precipitation_Accumulation
0.27 0.28 0.27 0.26 0.25 0.23 0.23 0.24 0.22 0.20 0.18 0.16 0.14 0.12 0.11 0.11 0.11 0.12 0.13 0.13 0.13 0.14 0.14 0.14 0.15 0.15 0.15 0.14 0.14 0.14 0.15 0.20 0.26 0.16 0.10 0.10 0.13 0.17 0.19 0.21 0.20 0.17 0.15
0.18 0.16 0.16 0.16 0.15 0.14 0.14 0.14 0.13 0.12 0.12 0.12 0.12 0.12 0.11 0.11 0.12 0.12 0.13 0.13 0.14 0.14 0.13 0.13 0.13 0.13 0.15 0.14 0.14 0.13 0.15 0.20 0.28 0.27 0.17 0.13 0.13 0.16 0.19 0.21 0.14 0.13 0.14
0.13 0.12 0.12 0.12 0.11 0.11 0.11 0.11 0.11 0.11 0.10 0.09 0.08 0.08 0.08 0.08 0.08 0.09 0.09 0.10 0.10 0.10 0.09 0.09 0.09 0.09 0.11 0.11 0.13 0.13 0.16 0.18 0.25 0.29 0.20 0.15 0.12 0.12 0.19 0.21 0.20 0.25 0.15
0.11 0.11 0.12 0.12 0.11 0.11 0.11 0.10 0.09 0.07 0.06 0.05 0.05 0.04 0.05 0.05 0.05 0.05 0.04 0.04 0.04 0.04 0.04 0.05 0.05 0.07 0.11 0.14 0.13 0.15 0.19 0.22 0.23 0.26 0.22 0.16 0.14 0.15 0.26 0.34 0.31 0.26 0.19
0.13 0.13 0.13 0.12 0.10 0.09 0.08 0.07 0.05 0.04 0.03 0.03 0.03 0.03 0.02 0.02 0.01 0.01 0.01 0.01 0.02 0.02 0.03 0.04 0.05 0.07 0.13 0.15 0.16 0.18 0.23 0.27 0.28 0.31 0.28 0.23 0.19 0.25 0.34 0.38 0.34 0.24 0.18
0.16 0.14 0.13 0.11 0.09 0.08 0.06 0.05 0.04 0.04 0.03 0.03 0.02 0.02 0.02 0.01 0.00 0.00 0.00 0.01 0.02 0.03 0.05 0.06 0.05 0.05 0.07 0.09 0.11 0.15 0.22 0.29 0.34 0.38 0.36 0.31 0.26 0.34 0.43 0.44 0.44 0.39 0.28
0.19 0.17 0.16 0.13 0.11 0.09 0.06 0.05 0.04 0.04 0.03 0.03 0.02 0.03 0.03 0.02 0.00 0.00 0.00 0.01 0.04 0.07 0.09 0.09 0.07 0.07 0.12 0.14 0.11 0.10 0.14 0.20 0.34 0.47 0.48 0.39 0.37 0.43 0.55 0.55 0.50 0.47 0.39
0.22 0.19 0.15 0.13 0.10 0.07 0.05 0.04 0.03 0.04 0.04 0.04 0.04 0.04 0.07 0.03 0.00 0.00 0.00 0.02 0.06 0.08 0.09 0.10 0.14 0.18 0.15 0.10 0.08 0.10 0.18 0.31 0.39 0.43 0.49 0.44 0.44 0.49 0.59 0.60 0.53 0.46 0.36
0.21 0.15 0.10 0.09 0.08 0.05 0.04 0.04 0.04 0.05 0.05 0.05 0.04 0.06 0.09 0.08 0.01 0.00 0.00 0.02 0.05 0.06 0.06 0.08 0.11 0.16 0.13 0.11 0.11 0.16 0.23 0.34 0.34 0.42 0.49 0.55 0.60 0.59 0.55 0.52 0.57 0.59 0.50
0.12 0.08 0.06 0.06 0.05 0.04 0.04 0.04 0.05 0.05 0.06 0.06 0.06 0.07 0.10 0.11 0.02 0.00 0.01 0.03 0.05 0.05 0.08 0.14 0.13 0.10 0.11 0.12 0.12 0.21 0.32 0.37 0.49 0.66 0.78 0.84 0.79 0.71 0.61 0.57 0.64 0.68 0.67
0.06 0.05 0.06 0.05 0.04 0.04 0.04 0.06 0.07 0.07 0.10 0.10 0.09 0.10 0.11 0.07 0.03 0.00 0.01 0.03 0.05 0.07 0.13 0.22 0.24 0.14 0.14 0.12 0.14 0.25 0.39 0.47 0.68 0.94 0.98 0.86 0.73 0.62 0.55 0.55 0.57 0.63 0.67
0.05 0.06 0.06 0.04 0.02 0.02 0.06 0.08 0.08 0.11 0.12 0.12 0.12 0.12 0.12 0.10 0.05 0.02 0.01 0.02 0.04 0.10 0.22 0.25 0.24 0.21 0.18 0.17 0.23 0.37 0.47 0.64 0.87 1.03 0.94 0.76 0.60 0.50 0.45 0.42 0.45 0.50 0.53
0.09 0.09 0.07 0.05 0.03 0.03 0.05 0.08 0.09 0.11 0.11 0.09 0.09 0.09 0.09 0.12 0.09 0.02 0.01 0.02 0.04 0.10 0.22 0.26 0.26 0.25 0.28 0.40 0.47 0.55 0.65 0.81 0.95 0.92 0.78 0.67 0.57 0.48 0.43 0.40 0.40 0.43 0.45
0.13 0.12 0.10 0.09 0.05 0.04 0.05 0.04 0.07 0.08 0.08 0.08 0.08 0.08 0.09 0.11 0.09 0.06 0.05 0.07 0.09 0.14 0.22 0.33 0.44 0.49 0.52 0.61 0.69 0.77 0.82 0.89 0.84 0.73 0.62 0.58 0.51 0.45 0.42 0.39 0.39 0.40 0.41
0.12 0.11 0.09 0.06 0.05 0.07 0.07 0.03 0.03 0.04 0.02 0.03 0.05 0.06 0.09 0.10 0.07 0.08 0.09 0.11 0.15 0.20 0.24 0.38 0.56 0.63 0.68 0.73 0.73 0.77 0.79 0.76 0.74 0.68 0.61 0.53 0.47 0.43 0.41 0.38 0.39 0.36 0.39
0.08 0.08 0.07 0.05 0.05 0.07 0.10 0.10 0.03 0.01 0.00 0.01 0.02 0.04 0.05 0.08 0.07 0.06 0.09 0.13 0.18 0.25 0.31 0.48 0.63 0.68 0.70 0.71 0.68 0.68 0.69 0.65 0.61 0.59 0.58 0.53 0.48 0.44 0.42 0.39 0.38 0.37 0.39
0.05 0.06 0.06 0.06 0.06 0.07 0.10 0.17 0.20 0.11 0.03 0.01 0.02 0.04 0.05 0.07 0.07 0.06 0.08 0.13 0.17 0.24 0.32 0.51 0.67 0.78 0.78 0.72 0.65 0.62 0.67 0.68 0.64 0.61 0.56 0.52 0.46 0.41 0.39 0.37 0.35 0.34 0.35
0.04 0.05 0.04 0.07 0.06 0.06 0.07 0.11 0.18 0.22 0.20 0.15 0.07 0.05 0.06 0.08 0.10 0.10 0.11 0.14 0.21 0.26 0.37 0.51 0.63 0.68 0.70 0.70 0.64 0.61 0.65 0.67 0.64 0.57 0.51 0.48 0.42 0.38 0.35 0.36 0.33 0.27 0.26
0.03 0.05 0.04 0.04 0.04 0.04 0.05 0.07 0.10 0.13 0.18 0.20 0.18 0.11 0.09 0.10 0.14 0.16 0.16 0.18 0.24 0.29 0.36 0.45 0.53 0.54 0.51 0.52 0.51 0.51 0.55 0.59 0.54 0.45 0.42 0.42 0.38 0.33 0.33 0.33 0.28 0.18 0.19
0.02 0.02 0.01 0.02 0.03 0.03 0.04 0.05 0.06 0.10 0.15 0.19 0.17 0.13 0.13 0.19 0.26 0.25 0.19 0.17 0.18 0.22 0.29 0.37 0.43 0.41 0.38 0.37 0.34 0.33 0.36 0.39 0.37 0.34 0.32 0.31 0.31 0.30 0.28 0.25 0.22 0.19 0.18
0.02 0.02 0.01 0.01 0.03 0.03 0.02 0.02 0.03 0.06 0.10 0.14 0.12 0.09 0.14 0.20 0.27 0.29 0.29 0.26 0.24 0.23 0.24 0.26 0.30 0.33 0.32 0.29 0.25 0.22 0.23 0.24 0.24 0.25 0.26 0.26 0.26 0.25 0.20 0.16 0.13 0.10 0.10
0.01 0.01 0.01 0.02 0.02 0.02 0.01 0.01 0.01 0.03 0.06 0.09 0.11 0.09 0.14 0.17 0.21 0.24 0.29 0.33 0.32 0.29 0.25 0.23 0.23 0.26 0.29 0.28 0.22 0.18 0.17 0.18 0.20 0.23 0.24 0.24 0.22 0.18 0.14 0.11 0.08 0.06 0.05
0.00 0.00 0.00 0.01 0.00 0.00 0.00 0.00 0.01 0.01 0.04 0.06 0.08 0.10 0.11 0.16 0.18 0.21 0.25 0.30 0.33 0.31 0.26 0.22 0.22 0.25 0.27 0.27 0.23 0.17 0.14 0.14 0.16 0.18 0.23 0.23 0.19 0.15 0.11 0.08 0.05 0.04 0.03
0.00 0.00 0.00 0.00 0.00 0.00 0.00 0.00 0.00 0.00 0.01 0.02 0.05 0.07 0.10 0.14 0.15 0.17 0.21 0.25 0.29 0.30 0.29 0.27 0.26 0.26 0.25 0.24 0.21 0.13 0.10 0.11 0.12 0.14 0.18 0.20 0.17 0.13 0.08 0.06 0.04 0.03 0.02
0.00 0.00 0.00 0.00 0.00 0.00 0.00 0.00 0.00 0.00 0.01 0.01 0.02 0.03 0.05 0.07 0.10 0.11 0.15 0.19 0.22 0.25 0.25 0.24 0.24 0.22 0.20 0.17 0.14 0.10 0.09 0.11 0.12 0.12 0.14 0.15 0.12 0.10 0.08 0.06 0.04 0.03 0.03
0.00 0.00 0.00 0.00 0.00 0.00 0.00 0.01 0.01 0.01 0.01 0.01 0.01 0.02 0.02 0.03 0.05 0.07 0.08 0.09 0.12 0.16 0.19 0.20 0.20 0.17 0.12 0.08 0.07 0.07 0.07 0.05 0.05 0.06 0.10 0.13 0.11 0.09 0.08 0.07 0.04 0.03 0.02

GEFSGL_prec_meanprecacc_090.txt.gz
Total_Precipitation_Accumulation
0.33 0.33 0.30 0.28 0.28 0.26 0.25 0.25 0.24 0.22 0.19 0.17 0.15 0.13 0.12 0.12 0.12 0.12 0.13 0.13 0.14 0.14 0.14 0.14 0.15 0.15 0.15 0.14 0.14 0.15 0.15 0.20 0.26 0.17 0.11 0.10 0.14 0.18 0.20 0.22 0.21 0.19 0.17
0.23 0.20 0.19 0.18 0.17 0.16 0.16 0.16 0.14 0.13 0.12 0.12 0.12 0.12 0.12 0.12 0.12 0.13 0.13 0.13 0.14 0.14 0.13 0.13 0.13 0.13 0.15 0.14 0.14 0.13 0.15 0.20 0.29 0.27 0.17 0.13 0.14 0.16 0.20 0.22 0.15 0.13 0.15
0.18 0.16 0.16 0.14 0.13 0.13 0.13 0.12 0.12 0.11 0.11 0.09 0.08 0.08 0.08 0.08 0.08 0.09 0.09 0.10 0.10 0.10 0.09 0.09 0.09 0.09 0.11 0.11 0.13 0.14 0.16 0.18 0.26 0.29 0.20 0.16 0.13 0.12 0.19 0.22 0.21 0.26 0.15
0.15 0.15 0.17 0.17 0.14 0.13 0.13 0.12 0.09 0.07 0.06 0.06 0.05 0.04 0.05 0.05 0.05 0.05 0.04 0.04 0.04 0.04 0.04 0.05 0.05 0.07 0.11 0.14 0.13 0.15 0.19 0.22 0.24 0.26 0.22 0.17 0.15 0.15 0.27 0.36 0.32 0.27 0.21
0.15 0.15 0.15 0.14 0.12 0.10 0.09 0.07 0.05 0.04 0.03 0.03 0.03 0.03 0.02 0.02 0.01 0.01 0.01 0.01 0.02 0.02 0.03 0.04 0.05 0.07 0.13 0.15 0.16 0.19 0.23 0.27 0.28 0.31 0.29 0.23 0.20 0.26 0.36 0.40 0.35 0.26 0.19
0.18 0.16 0.14 0.12 0.10 0.08 0.07 0.05 0.04 0.04 0.03 0.03 0.02 0.02 0.02 0.01 0.00 0.00 0.00 0.01 0.02 0.04 0.05 0.06 0.05 0.05 0.07 0.09 0.11 0.15 0.22 0.29 0.34 0.39 0.37 0.32 0.27 0.36 0.45 0.47 0.47 0.41 0.31
0.21 0.19 0.17 0.14 0.12 0.09 0.06 0.05 0.05 0.04 0.04 0.03 0.02 0.03 0.04 0.02 0.00 0.00 0.00 0.01 0.04 0.08 0.09 0.10 0.07 0.07 0.12 0.14 0.12 0.10 0.14 0.21 0.34 0.47 0.49 0.41 0.40 0.45 0.57 0.57 0.53 0.50 0.41
0.24 0.21 0.16 0.14 0.12 0.09 0.06 0.05 0.04 0.04 0.04 0.04 0.04 0.05 0.07 0.03 0.00 0.00 0.00 0.02 0.06 0.08 0.09 0.10 0.14 0.18 0.15 0.10 0.08 0.10 0.19 0.32 0.39 0.43 0.49 0.46 0.45 0.50 0.60 0.61 0.55 0.48 0.39
0.24 0.17 0.12 0.11 0.09 0.06 0.05 0.05 0.05 0.05 0.06 0.05 0.05 0.06 0.10 0.08 0.01 0.00 0.00 0.02 0.05 0.06 0.07 0.08 0.11 0.16 0.13 0.11 0.11 0.17 0.25 0.36 0.34 0.42 0.49 0.55 0.60 0.60 0.55 0.54 0.61 0.63 0.55
0.14 0.09 0.07 0.08 0.06 0.05 0.05 0.05 0.06 0.06 0.07 0.06 0.06 0.07 0.10 0.11 0.02 0.00 0.01 0.03 0.05 0.05 0.08 0.14 0.13 0.10 0.11 0.12 0.13 0.22 0.33 0.39 0.50 0.67 0.80 0.86 0.82 0.74 0.62 0.60 0.69 0.73 0.72
0.07 0.06 0.07 0.07 0.06 0.05 0.06 0.07 0.08 0.08 0.11 0.11 0.10 0.11 0.12 0.08 0.03 0.00 0.01 0.03 0.06 0.07 0.13 0.22 0.25 0.14 0.14 0.12 0.14 0.26 0.39 0.47 0.69 0.97 1.01 0.90 0.77 0.67 0.60 0.58 0.61 0.67 0.73
0.06 0.07 0.07 0.05 0.03 0.03 0.07 0.09 0.09 0.11 0.13 0.13 0.12 0.12 0.12 0.11 0.05 0.02 0.01 0.02 0.04 0.10 0.23 0.25 0.24 0.21 0.18 0.17 0.23 0.37 0.47 0.65 0.89 1.06 0.98 0.80 0.64 0.53 0.48 0.45 0.47 0.52 0.57
0.10 0.11 0.08 0.06 0.04 0.03 0.06 0.08 0.10 0.12 0.11 0.10 0.10 0.10 0.10 0.12 0.09 0.02 0.01 0.02 0.04 0.10 0.22 0.26 0.26 0.25 0.28 0.40 0.47 0.55 0.65 0.82 0.97 0.94 0.80 0.70 0.59 0.50 0.44 0.42 0.42 0.45 0.47
0.15 0.13 0.11 0.10 0.07 0.04 0.05 0.05 0.07 0.08 0.08 0.08 0.09 0.09 0.10 0.11 0.09 0.06 0.06 0.07 0.09 0.14 0.22 0.34 0.45 0.49 0.52 0.62 0.69 0.77 0.83 0.90 0.85 0.74 0.64 0.60 0.52 0.47 0.44 0.40 0.40 0.42 0.44
0.14 0.12 0.10 0.07 0.06 0.08 0.08 0.04 0.03 0.04 0.02 0.03 0.06 0.06 0.09 0.10 0.07 0.08 0.09 0.11 0.15 0.20 0.25 0.39 0.56 0.63 0.68 0.73 0.73 0.78 0.80 0.76 0.74 0.69 0.62 0.55 0.49 0.45 0.44 0.40 0.40 0.38 0.41
0.09 0.09 0.08 0.06 0.05 0.07 0.10 0.10 0.03 0.01 0.00 0.01 0.02 0.04 0.05 0.08 0.07 0.06 0.09 0.13 0.18 0.25 0.31 0.49 0.64 0.69 0.71 0.72 0.68 0.68 0.69 0.65 0.61 0.60 0.58 0.54 0.50 0.46 0.44 0.41 0.40 0.39 0.41
0.06 0.07 0.06 0.06 0.06 0.07 0.10 0.18 0.21 0.11 0.03 0.01 0.02 0.04 0.05 0.07 0.07 0.06 0.08 0.13 0.17 0.24 0.32 0.51 0.68 0.78 0.78 0.72 0.65 0.62 0.67 0.68 0.64 0.61 0.56 0.52 0.46 0.42 0.39 0.38 0.36 0.35 0.36
0.05 0.05 0.04 0.07 0.06 0.06 0.07 0.11 0.19 0.24 0.21 0.16 0.07 0.05 0.06 0.08 0.10 0.10 0.11 0.14 0.21 0.26 0.37 0.52 0.63 0.68 0.70 0.70 0.64 0.61 0.65 0.67 0.64 0.57 0.51 0.48 0.42 0.38 0.35 0.37 0.34 0.27 0.27
0.03 0.05 0.05 0.04 0.04 0.04 0.05 0.07 0.10 0.14 0.19 0.21 0.18 0.12 0.09 0.11 0.14 0.16 0.16 0.18 0.24 0.29 0.36 0.45 0.53 0.54 0.51 0.52 0.51 0.51 0.55 0.59 0.54 0.45 0.42 0.42 0.38 0.33 0.33 0.33 0.28 0.19 0.19
0.03 0.02 0.01 0.02 0.03 0.03 0.04 0.05 0.07 0.10 0.16 0.20 0.18 0.14 0.14 0.20 0.27 0.26 0.20 0.17 0.18 0.22 0.29 0.37 0.43 0.41 0.38 0.37 0.34 0.33 0.36 0.39 0.37 0.34 0.32 0.31 0.31 0.30 0.28 0.25 0.22 0.19 0.18
0.02 0.02 0.01 0.01 0.03 0.03 0.02 0.02 0.03 0.06 0.10 0.14 0.12 0.09 0.14 0.21 0.28 0.29 0.29 0.26 0.24 0.23 0.24 0.26 0.30 0.33 0.32 0.29 0.25 0.22 0.23 0.24 0.24 0.25 0.26 0.26 0.26 0.25 0.20 0.16 0.13 0.10 0.10
0.01 0.01 0.01 0.02 0.02 0.02 0.01 0.01 0.01 0.03 0.07 0.10 0.11 0.10 0.14 0.17 0.22 0.24 0.29 0.33 0.32 0.29 0.25 0.23 0.23 0.26 0.29 0.28 0.22 0.18 0.17 0.18 0.20 0.23 0.24 0.24 0.22 0.18 0.14 0.11 0.08 0.06 0.05
0.00 0.00 0.00 0.01 0.00 0.00 0.00 0.00 0.01 0.01 0.04 0.06 0.08 0.10 0.12 0.16 0.19 0.21 0.25 0.30 0.33 0.31 0.26 0.22 0.22 0.25 0.27 0.27 0.23 0.17 0.14 0.14 0.16 0.18 0.23 0.23 0.19 0.15 0.11 0.08 0.05 0.04 0.03
0.00 0.00 0.00 0.00 0.00 0.00 0.00 0.00 0.00 0.00 0.01 0.02 0.05 0.07 0.10 0.14 0.15 0.17 0.21 0.25 0.29 0.30 0.29 0.27 0.26 0.26 0.25 0.24 0.21 0.13 0.10 0.11 0.12 0.14 0.18 0.20 0.17 0.13 0.08 0.06 0.04 0.03 0.02
0.00 0.00 0.00 0.00 0.00 0.00 0.00 0.00 0.00 0.00 0.01 0.01 0.02 0.03 0.05 0.07 0.10 0.11 0.15 0.19 0.22 0.25 0.25 0.24 0.24 0.22 0.20 0.17 0.14 0.10 0.09 0.11 0.12 0.12 0.14 0.15 0.12 0.10 0.08 0.06 0.04 0.03 0.03
0.00 0.00 0.00 0.00 0.00 0.00 0.00 0.01 0.01 0.01 0.01 0.01 0.01 0.02 0.02 0.03 0.05 0.07 0.08 0.09 0.12 0.16 0.19 0.20 0.20 0.17 0.12 0.08 0.07 0.07 0.07 0.05 0.05 0.06 0.10 0.13 0.11 0.09 0.08 0.07 0.04 0.03 0.02

GEFSGL_prec_meanprecacc_096.txt.gz
Total_Precipitation_Accumulation
0.36 0.36 0.34 0.32 0.31 0.29 0.28 0.28 0.26 0.24 0.21 0.19 0.17 0.15 0.14 0.13 0.13 0.13 0.14 0.14 0.14 0.14 0.14 0.14 0.15 0.15 0.15 0.14 0.14 0.15 0.15 0.20 0.26 0.17 0.11 0.11 0.14 0.18 0.20 0.23 0.22 0.20 0.18
0.28 0.24 0.22 0.20 0.19 0.19 0.18 0.17 0.16 0.15 0.14 0.13 0.12 0.12 0.12 0.12 0.12 0.13 0.13 0.13 0.14 0.14 0.13 0.13 0.13 0.13 0.15 0.14 0.14 0.13 0.15 0.20 0.29 0.27 0.18 0.13 0.14 0.16 0.20 0.22 0.16 0.14 0.16
0.25 0.22 0.20 0.18 0.16 0.15 0.15 0.14 0.14 0.13 0.12 0.10 0.09 0.08 0.08 0.08 0.08 0.09 0.09 0.10 0.10 0.10 0.10 0.09 0.09 0.10 0.11 0.11 0.13 0.14 0.16 0.18 0.26 0.29 0.20 0.16 0.13 0.12 0.19 0.22 0.22 0.27 0.16
0.22 0.20 0.21 0.21 0.18 0.16 0.15 0.14 0.11 0.09 0.08 0.06 0.05 0.05 0.05 0.05 0.05 0.05 0.04 0.04 0.04 0.04 0.04 0.05 0.06 0.07 0.11 0.14 0.14 0.16 0.20 0.23 0.24 0.26 0.22 0.17 0.15 0.16 0.28 0.37 0.33 0.29 0.22
0.20 0.19 0.19 0.19 0.17 0.14 0.13 0.11 0.08 0.06 0.05 0.04 0.04 0.03 0.03 0.02 0.02 0.01 0.01 0.01 0.02 0.03 0.03 0.04 0.05 0.07 0.13 0.15 0.16 0.19 0.24 0.28 0.29 0.32 0.30 0.25 0.22 0.29 0.39 0.41 0.37 0.28 0.22
0.21 0.19 0.16 0.14 0.14 0.12 0.10 0.09 0.08 0.07 0.06 0.05 0.04 0.02 0.02 0.01 0.00 0.00 0.00 0.01 0.02 0.04 0.06 0.06 0.05 0.05 0.07 0.09 0.11 0.15 0.22 0.29 0.35 0.40 0.38 0.35 0.31 0.39 0.48 0.49 0.50 0.45 0.35
0.24 0.22 0.20 0.16 0.14 0.12 0.08 0.08 0.07 0.07 0.07 0.05 0.04 0.03 0.04 0.02 0.00 0.00 0.00 0.01 0.05 0.08 0.10 0.11 0.08 0.07 0.12 0.15 0.12 0.10 0.14 0.21 0.34 0.48 0.51 0.44 0.43 0.49 0.59 0.60 0.56 0.54 0.46
0.27 0.24 0.20 0.17 0.15 0.12 0.08 0.07 0.06 0.07 0.07 0.07 0.06 0.06 0.07 0.03 0.00 0.00 0.00 0.02 0.06 0.09 0.10 0.11 0.15 0.19 0.15 0.10 0.08 0.12 0.23 0.35 0.40 0.43 0.50 0.47 0.46 0.50 0.61 0.63 0.58 0.53 0.47
0.26 0.20 0.16 0.14 0.12 0.09 0.08 0.07 0.07 0.08 0.08 0.07 0.06 0.08 0.11 0.08 0.01 0.00 0.00 0.03 0.06 0.07 0.07 0.09 0.12 0.17 0.13 0.11 0.12 0.21 0.30 0.40 0.34 0.42 0.49 0.55 0.60 0.60 0.55 0.55 0.65 0.68 0.63
0.16 0.12 0.10 0.10 0.08 0.07 0.08 0.08 0.09 0.09 0.09 0.08 0.08 0.09 0.12 0.12 0.02 0.00 0.01 0.04 0.07 0.08 0.11 0.16 0.13 0.10 0.11 0.12 0.13 0.24 0.36 0.41 0.52 0.70 0.83 0.89 0.84 0.76 0.63 0.62 0.74 0.79 0.79
0.09 0.08 0.09 0.09 0.08 0.07 0.08 0.10 0.11 0.11 0.13 0.13 0.12 0.12 0.13 0.08 0.03 0.00 0.01 0.04 0.07 0.10 0.16 0.25 0.25 0.14 0.14 0.12 0.14 0.26 0.40 0.47 0.71 1.01 1.06 0.95 0.81 0.71 0.64 0.62 0.65 0.72 0.77
0.09 0.09 0.08 0.07 0.04 0.04 0.09 0.11 0.11 0.14 0.16 0.16 0.15 0.15 0.14 0.12 0.05 0.02 0.01 0.02 0.04 0.12 0.25 0.27 0.25 0.21 0.18 0.17 0.23 0.37 0.47 0.65 0.91 1.10 1.02 0.83 0.66 0.56 0.50 0.46 0.49 0.54 0.60
0.13 0.13 0.09 0.07 0.05 0.04 0.07 0.10 0.12 0.14 0.13 0.12 0.12 0.12 0.12 0.14 0.10 0.02 0.01 0.02 0.04 0.11 0.23 0.26 0.26 0.25 0.28 0.41 0.48 0.55 0.66 0.83 0.99 0.97 0.84 0.73 0.61 0.51 0.46 0.44 0.43 0.47 0.48
0.19 0.16 0.13 0.13 0.09 0.05 0.06 0.06 0.08 0.09 0.09 0.10 0.10 0.10 0.12 0.13 0.10 0.06 0.06 0.07 0.10 0.15 0.23 0.34 0.45 0.49 0.53 0.62 0.70 0.78 0.84 0.91 0.86 0.76 0.67 0.62 0.53 0.48 0.45 0.41 0.42 0.44 0.47
0.17 0.14 0.12 0.09 0.08 0.10 0.08 0.04 0.03 0.04 0.02 0.04 0.06 0.07 0.11 0.11 0.07 0.08 0.09 0.11 0.16 0.20 0.25 0.40 0.59 0.65 0.69 0.74 0.74 0.78 0.80 0.76 0.75 0.70 0.63 0.56 0.50 0.46 0.45 0.41 0.42 0.40 0.44
0.12 0.11 0.10 0.07 0.07 0.09 0.12 0.11 0.03 0.01 0.00 0.01 0.02 0.04 0.05 0.08 0.07 0.06 0.09 0.13 0.18 0.25 0.31 0.50 0.66 0.70 0.71 0.72 0.68 0.68 0.69 0.65 0.62 0.60 0.59 0.54 0.50 0.47 0.45 0.42 0.40 0.40 0.43
0.08 0.08 0.07 0.07 0.07 0.09 0.12 0.20 0.23 0.12 0.03 0.01 0.02 0.04 0.05 0.07 0.07 0.06 0.08 0.13 0.17 0.24 0.32 0.52 0.69 0.79 0.79 0.72 0.65 0.62 0.67 0.68 0.64 0.61 0.56 0.52 0.46 0.42 0.40 0.39 0.36 0.35 0.37
0.05 0.05 0.05 0.08 0.06 0.06 0.08 0.12 0.21 0.26 0.23 0.16 0.08 0.05 0.06 0.08 0.10 0.10 0.11 0.15 0.21 0.26 0.37 0.52 0.64 0.68 0.70 0.70 0.64 0.61 0.65 0.67 0.64 0.57 0.51 0.48 0.42 0.38 0.36 0.37 0.34 0.27 0.27
0.03 0.06 0.05 0.04 0.04 0.04 0.05 0.07 0.11 0.15 0.21 0.22 0.19 0.12 0.09 0.11 0.14 0.16 0.16 0.19 0.25 0.29 0.36 0.45 0.53 0.54 0.51 0.52 0.51 0.51 0.55 0.59 0.54 0.45 0.42 0.42 0.38 0.33 0.33 0.33 0.28 0.19 0.19
0.03 0.02 0.02 0.02 0.03 0.03 0.04 0.06 0.07 0.11 0.16 0.21 0.19 0.15 0.14 0.21 0.28 0.27 0.20 0.18 0.18 0.22 0.29 0.37 0.43 0.41 0.38 0.37 0.34 0.33 0.36 0.39 0.37 0.34 0.32 0.31 0.31 0.30 0.28 0.25 0.22 0.19 0.18
0.02 0.02 0.01 0.01 0.03 0.03 0.02 0.03 0.03 0.06 0.11 0.15 0.13 0.10 0.15 0.22 0.30 0.31 0.29 0.26 0.24 0.23 0.24 0.26 0.30 0.33 0.32 0.29 0.25 0.22 0.23 0.24 0.24 0.25 0.26 0.26 0.26 0.25 0.20 0.16 0.13 0.10 0.10
0.01 0.01 0.01 0.02 0.02 0.02 0.01 0.01 0.01 0.03 0.07 0.10 0.11 0.10 0.14 0.18 0.22 0.24 0.29 0.33 0.32 0.29 0.25 0.23 0.23 0.26 0.29 0.28 0.22 0.18 0.17 0.18 0.20 0.23 0.24 0.24 0.22 0.18 0.14 0.11 0.08 0.06 0.05
0.00 0.00 0.00 0.01 0.00 0.00 0.00 0.00 0.01 0.01 0.04 0.06 0.08 0.10 0.12 0.16 0.19 0.21 0.25 0.30 0.33 0.31 0.26 0.22 0.22 0.25 0.27 0.27 0.23 0.17 0.14 0.14 0.16 0.18 0.23 0.23 0.19 0.15 0.11 0.08 0.05 0.04 0.03
0.00 0.00 0.00 0.00 0.00 0.00 0.00 0.00 0.00 0.00 0.01 0.02 0.05 0.07 0.10 0.14 0.15 0.17 0.21 0.25 0.29 0.30 0.29 0.27 0.26 0.26 0.25 0.24 0.21 0.13 0.10 0.11 0.12 0.14 0.18 0.20 0.17 0.13 0.08 0.06 0.04 0.03 0.02
0.00 0.00 0.00 0.00 0.00 0.00 0.00 0.00 0.00 0.00 0.01 0.01 0.02 0.03 0.05 0.07 0.10 0.11 0.15 0.19 0.22 0.25 0.25 0.24 0.24 0.22 0.20 0.17 0.14 0.10 0.09 0.11 0.12 0.12 0.14 0.15 0.12 0.10 0.08 0.06 0.04 0.03 0.03
0.00 0.00 0.00 0.00 0.00 0.00 0.00 0.01 0.01 0.01 0.01 0.01 0.01 0.02 0.02 0.03 0.05 0.07 0.08 0.09 0.12 0.16 0.19 0.20 0.20 0.17 0.12 0.08 0.07 0.07 0.07 0.05 0.05 0.06 0.10 0.13 0.11 0.09 0.08 0.07 0.04 0.03 0.02

GEFSGL_prec_meanprecacc_102.txt.gz
Total_Precipitation_Accumulation
0.39 0.39 0.36 0.34 0.33 0.30 0.29 0.30 0.28 0.25 0.23 0.20 0.18 0.16 0.15 0.14 0.14 0.14 0.14 0.14 0.14 0.15 0.15 0.15 0.15 0.15 0.15 0.14 0.14 0.15 0.15 0.20 0.26 0.17 0.11 0.11 0.14 0.18 0.20 0.23 0.22 0.20 0.18
0.31 0.27 0.25 0.23 0.22 0.21 0.20 0.19 0.17 0.16 0.15 0.15 0.14 0.14 0.12 0.12 0.13 0.13 0.13 0.13 0.14 0.14 0.13 0.13 0.13 0.13 0.15 0.14 0.14 0.13 0.15 0.20 0.29 0.27 0.18 0.13 0.14 0.16 0.20 0.22 0.16 0.14 0.16
0.28 0.26 0.24 0.21 0.18 0.17 0.17 0.15 0.15 0.14 0.13 0.11 0.10 0.09 0.08 0.08 0.08 0.09 0.09 0.10 0.10 0.10 0.10 0.09 0.09 0.10 0.11 0.11 0.13 0.14 0.16 0.18 0.26 0.29 0.20 0.16 0.13 0.12 0.19 0.22 0.22 0.27 0.16
0.27 0.24 0.25 0.25 0.21 0.19 0.18 0.15 0.12 0.09 0.08 0.07 0.05 0.05 0.05 0.05 0.05 0.05 0.04 0.04 0.04 0.04 0.04 0.05 0.06 0.07 0.11 0.14 0.14 0.16 0.20 0.23 0.24 0.26 0.22 0.17 0.15 0.16 0.28 0.37 0.33 0.29 0.22
0.24 0.22 0.22 0.22 0.20 0.18 0.15 0.13 0.09 0.06 0.05 0.04 0.04 0.04 0.03 0.03 0.02 0.01 0.01 0.02 0.02 0.03 0.03 0.04 0.05 0.07 0.13 0.15 0.16 0.19 0.24 0.28 0.29 0.32 0.30 0.25 0.22 0.29 0.39 0.41 0.37 0.28 0.22
0.25 0.23 0.19 0.17 0.16 0.15 0.13 0.11 0.09 0.07 0.06 0.05 0.05 0.04 0.03 0.02 0.01 0.01 0.01 0.02 0.03 0.04 0.06 0.07 0.05 0.05 0.07 0.09 0.11 0.15 0.22 0.29 0.35 0.40 0.38 0.35 0.31 0.39 0.48 0.49 0.50 0.45 0.35
0.29 0.27 0.24 0.19 0.16 0.13 0.10 0.09 0.08 0.08 0.07 0.06 0.05 0.04 0.05 0.03 0.01 0.01 0.00 0.01 0.05 0.08 0.10 0.11 0.08 0.08 0.12 0.15 0.12 0.10 0.14 0.21 0.34 0.48 0.51 0.44 0.43 0.49 0.59 0.60 0.56 0.54 0.46
0.30 0.28 0.23 0.19 0.17 0.13 0.10 0.08 0.07 0.08 0.08 0.07 0.06 0.06 0.08 0.04 0.00 0.00 0.00 0.02 0.06 0.09 0.10 0.11 0.15 0.19 0.15 0.10 0.08 0.12 0.23 0.35 0.40 0.43 0.50 0.47 0.46 0.50 0.61 0.63 0.58 0.53 0.47
0.28 0.22 0.18 0.16 0.13 0.10 0.08 0.07 0.08 0.08 0.08 0.07 0.06 0.08 0.11 0.08 0.01 0.00 0.00 0.03 0.06 0.07 0.07 0.09 0.12 0.17 0.13 0.11 0.12 0.21 0.30 0.40 0.34 0.43 0.49 0.55 0.60 0.60 0.55 0.55 0.65 0.68 0.63
0.18 0.13 0.12 0.11 0.09 0.08 0.08 0.08 0.09 0.09 0.10 0.08 0.08 0.09 0.12 0.12 0.02 0.00 0.01 0.04 0.07 0.08 0.11 0.16 0.13 0.10 0.11 0.12 0.13 0.24 0.36 0.41 0.52 0.70 0.84 0.89 0.84 0.76 0.63 0.62 0.74 0.80 0.79
0.10 0.09 0.10 0.10 0.09 0.07 0.08 0.10 0.11 0.12 0.14 0.14 0.12 0.13 0.13 0.08 0.03 0.00 0.01 0.04 0.07 0.10 0.16 0.25 0.25 0.14 0.14 0.12 0.14 0.26 0.40 0.47 0.71 1.01 1.06 0.95 0.81 0.71 0.64 0.62 0.65 0.72 0.77
0.10 0.09 0.09 0.08 0.04 0.04 0.10 0.12 0.12 0.15 0.17 0.17 0.16 0.15 0.14 0.12 0.05 0.02 0.01 0.02 0.04 0.12 0.25 0.27 0.25 0.21 0.18 0.17 0.23 0.37 0.47 0.65 0.91 1.10 1.02 0.84 0.66 0.56 0.50 0.46 0.49 0.54 0.61
0.15 0.14 0.10 0.08 0.06 0.05 0.08 0.11 0.12 0.14 0.14 0.12 0.12 0.12 0.12 0.14 0.10 0.02 0.01 0.02 0.04 0.11 0.23 0.26 0.26 0.25 0.28 0.41 0.48 0.55 0.66 0.83 0.99 0.97 0.84 0.73 0.61 0.51 0.46 0.44 0.43 0.47 0.48
0.21 0.17 0.14 0.13 0.09 0.06 0.07 0.06 0.08 0.10 0.09 0.10 0.11 0.10 0.12 0.13 0.10 0.06 0.06 0.07 0.10 0.15 0.23 0.34 0.45 0.49 0.53 0.62 0.70 0.78 0.84 0.91 0.86 0.76 0.67 0.62 0.54 0.48 0.46 0.41 0.42 0.44 0.47
0.17 0.14 0.12 0.09 0.09 0.11 0.09 0.04 0.03 0.04 0.02 0.04 0.06 0.07 0.11 0.11 0.07 0.08 0.09 0.11 0.16 0.20 0.25 0.40 0.59 0.65 0.69 0.74 0.74 0.78 0.80 0.76 0.75 0.70 0.63 0.56 0.50 0.46 0.45 0.42 0.42 0.40 0.44
0.12 0.12 0.10 0.07 0.07 0.09 0.12 0.11 0.03 0.01 0.00 0.01 0.02 0.04 0.05 0.08 0.07 0.06 0.09 0.13 0.18 0.25 0.31 0.50 0.66 0.70 0.71 0.72 0.68 0.68 0.69 0.65 0.62 0.60 0.59 0.54 0.50 0.47 0.45 0.42 0.40 0.40 0.43
0.09 0.09 0.07 0.07 0.08 0.10 0.13 0.20 0.23 0.12 0.03 0.01 0.02 0.04 0.05 0.07 0.07 0.06 0.08 0.13 0.17 0.24 0.32 0.52 0.69 0.79 0.79 0.72 0.65 0.62 0.67 0.68 0.64 0.61 0.56 0.53 0.47 0.42 0.40 0.39 0.36 0.35 0.37
0.05 0.05 0.05 0.08 0.07 0.07 0.08 0.12 0.21 0.26 0.23 0.16 0.08 0.05 0.06 0.08 0.10 0.10 0.11 0.15 0.21 0.26 0.37 0.52 0.64 0.68 0.70 0.70 0.64 0.61 0.65 0.67 0.64 0.57 0.51 0.48 0.42 0.38 0.36 0.37 0.34 0.27 0.27
0.03 0.06 0.05 0.04 0.04 0.05 0.06 0.07 0.11 0.16 0.21 0.22 0.19 0.12 0.09 0.11 0.14 0.16 0.16 0.19 0.25 0.29 0.36 0.45 0.53 0.54 0.51 0.52 0.51 0.51 0.55 0.59 0.54 0.45 0.42 0.42 0.38 0.33 0.33 0.33 0.28 0.19 0.19
0.03 0.02 0.02 0.02 0.03 0.03 0.04 0.06 0.07 0.11 0.16 0.21 0.19 0.15 0.14 0.21 0.28 0.27 0.20 0.18 0.18 0.22 0.29 0.37 0.43 0.41 0.38 0.37 0.34 0.33 0.36 0.39 0.37 0.34 0.32 0.31 0.31 0.30 0.28 0.25 0.22 0.19 0.18
0.02 0.02 0.01 0.01 0.03 0.03 0.02 0.03 0.03 0.06 0.11 0.15 0.13 0.10 0.15 0.22 0.30 0.31 0.29 0.26 0.24 0.23 0.24 0.26 0.30 0.33 0.32 0.29 0.25 0.22 0.23 0.24 0.24 0.25 0.26 0.26 0.26 0.25 0.20 0.16 0.13 0.10 0.10
0.01 0.01 0.01 0.02 0.02 0.02 0.01 0.01 0.01 0.03 0.07 0.10 0.11 0.10 0.14 0.18 0.22 0.24 0.29 0.33 0.32 0.29 0.25 0.23 0.23 0.26 0.29 0.28 0.22 0.18 0.17 0.18 0.20 0.23 0.24 0.24 0.22 0.18 0.14 0.11 0.08 0.06 0.06
0.00 0.00 0.00 0.01 0.00 0.00 0.00 0.00 0.01 0.01 0.04 0.06 0.08 0.10 0.12 0.16 0.19 0.21 0.25 0.30 0.33 0.31 0.26 0.22 0.22 0.25 0.27 0.27 0.23 0.17 0.14 0.14 0.16 0.18 0.23 0.23 0.19 0.15 0.11 0.08 0.05 0.04 0.03
0.00 0.00 0.00 0.00 0.00 0.00 0.00 0.00 0.00 0.00 0.01 0.02 0.05 0.07 0.10 0.14 0.15 0.17 0.21 0.25 0.29 0.30 0.29 0.27 0.26 0.26 0.25 0.24 0.21 0.13 0.10 0.11 0.12 0.14 0.18 0.20 0.17 0.13 0.08 0.06 0.04 0.03 0.02
0.00 0.00 0.00 0.00 0.00 0.00 0.00 0.00 0.00 0.00 0.01 0.01 0.02 0.03 0.05 0.07 0.10 0.11 0.15 0.19 0.22 0.25 0.25 0.24 0.24 0.22 0.20 0.17 0.14 0.10 0.09 0.11 0.12 0.12 0.14 0.15 0.12 0.10 0.08 0.06 0.04 0.03 0.03
0.00 0.00 0.00 0.00 0.00 0.00 0.00 0.01 0.01 0.01 0.01 0.01 0.01 0.02 0.02 0.03 0.05 0.07 0.08 0.09 0.12 0.16 0.19 0.20 0.20 0.17 0.12 0.08 0.07 0.07 0.07 0.05 0.05 0.06 0.10 0.13 0.11 0.09 0.08 0.07 0.04 0.03 0.02

GEFSGL_prec_meanprecacc_108.txt.gz
Total_Precipitation_Accumulation
0.42 0.42 0.39 0.37 0.35 0.33 0.32 0.32 0.29 0.27 0.24 0.22 0.20 0.17 0.16 0.15 0.15 0.16 0.17 0.17 0.16 0.16 0.16 0.16 0.16 0.17 0.17 0.16 0.17 0.18 0.19 0.23 0.28 0.19 0.12 0.11 0.14 0.18 0.20 0.23 0.22 0.20 0.18
0.34 0.30 0.28 0.25 0.24 0.22 0.21 0.20 0.18 0.17 0.16 0.16 0.16 0.15 0.13 0.13 0.14 0.14 0.14 0.14 0.14 0.14 0.14 0.13 0.13 0.13 0.16 0.15 0.15 0.15 0.16 0.21 0.30 0.28 0.18 0.14 0.14 0.16 0.20 0.22 0.16 0.14 0.16
0.32 0.30 0.28 0.24 0.21 0.20 0.18 0.16 0.16 0.15 0.14 0.13 0.11 0.11 0.10 0.09 0.09 0.09 0.10 0.10 0.10 0.10 0.10 0.09 0.09 0.10 0.11 0.12 0.13 0.14 0.16 0.19 0.26 0.29 0.20 0.16 0.13 0.12 0.19 0.22 0.22 0.27 0.16
0.30 0.30 0.30 0.29 0.24 0.21 0.19 0.17 0.13 0.11 0.10 0.08 0.07 0.07 0.06 0.06 0.05 0.05 0.04 0.04 0.04 0.04 0.04 0.05 0.06 0.07 0.11 0.14 0.14 0.16 0.20 0.23 0.24 0.26 0.22 0.17 0.15 0.16 0.28 0.37 0.33 0.29 0.22
0.28 0.28 0.27 0.27 0.24 0.20 0.17 0.15 0.11 0.09 0.07 0.06 0.05 0.04 0.04 0.03 0.02 0.01 0.01 0.02 0.02 0.03 0.03 0.04 0.05 0.07 0.13 0.15 0.16 0.19 0.24 0.28 0.29 0.32 0.30 0.25 0.22 0.29 0.39 0.41 0.37 0.28 0.22
0.30 0.30 0.26 0.22 0.19 0.17 0.15 0.12 0.10 0.08 0.07 0.06 0.05 0.04 0.03 0.02 0.02 0.01 0.01 0.02 0.03 0.05 0.06 0.07 0.05 0.05 0.07 0.09 0.11 0.15 0.22 0.29 0.35 0.40 0.38 0.35 0.31 0.39 0.48 0.49 0.50 0.45 0.35
0.35 0.32 0.29 0.25 0.19 0.15 0.11 0.10 0.09 0.09 0.07 0.06 0.05 0.04 0.05 0.03 0.01 0.01 0.00 0.02 0.05 0.08 0.10 0.11 0.08 0.08 0.12 0.15 0.12 0.10 0.14 0.21 0.34 0.48 0.51 0.44 0.43 0.49 0.59 0.60 0.56 0.54 0.46
0.36 0.31 0.26 0.23 0.19 0.15 0.11 0.09 0.08 0.08 0.08 0.08 0.07 0.06 0.08 0.04 0.00 0.00 0.00 0.02 0.06 0.09 0.10 0.11 0.15 0.19 0.15 0.10 0.08 0.12 0.23 0.35 0.40 0.43 0.50 0.47 0.46 0.50 0.61 0.63 0.58 0.53 0.47
0.32 0.24 0.20 0.18 0.16 0.12 0.10 0.09 0.08 0.08 0.09 0.08 0.07 0.08 0.11 0.08 0.01 0.00 0.00 0.03 0.06 0.07 0.07 0.09 0.12 0.17 0.13 0.11 0.12 0.21 0.30 0.40 0.34 0.43 0.49 0.55 0.60 0.60 0.55 0.55 0.65 0.68 0.63
0.19 0.14 0.13 0.13 0.11 0.09 0.09 0.09 0.09 0.09 0.10 0.08 0.08 0.09 0.12 0.12 0.03 0.00 0.01 0.04 0.07 0.08 0.11 0.16 0.13 0.10 0.11 0.12 0.13 0.24 0.36 0.41 0.52 0.70 0.84 0.89 0.84 0.76 0.63 0.62 0.74 0.80 0.79
0.11 0.10 0.11 0.11 0.10 0.09 0.09 0.11 0.11 0.12 0.14 0.14 0.13 0.13 0.13 0.08 0.03 0.01 0.01 0.04 0.07 0.10 0.16 0.25 0.25 0.14 0.14 0.12 0.14 0.26 0.40 0.47 0.71 1.01 1.06 0.95 0.81 0.71 0.64 0.62 0.65 0.72 0.77
0.11 0.11 0.11 0.09 0.06 0.05 0.10 0.12 0.12 0.15 0.18 0.17 0.16 0.15 0.14 0.12 0.05 0.02 0.01 0.02 0.04 0.12 0.25 0.27 0.25 0.21 0.18 0.17 0.23 0.37 0.47 0.65 0.91 1.10 1.02 0.84 0.66 0.56 0.50 0.46 0.49 0.54 0.61
0.16 0.16 0.12 0.09 0.06 0.05 0.08 0.11 0.13 0.14 0.14 0.12 0.12 0.12 0.12 0.14 0.10 0.02 0.02 0.02 0.04 0.11 0.23 0.26 0.26 0.25 0.28 0.41 0.48 0.55 0.66 0.83 0.99 0.97 0.84 0.73 0.61 0.51 0.46 0.44 0.43 0.47 0.48
0.22 0.18 0.15 0.14 0.09 0.06 0.07 0.06 0.09 0.10 0.10 0.10 0.11 0.10 0.12 0.13 0.10 0.06 0.06 0.07 0.10 0.15 0.23 0.34 0.45 0.49 0.53 0.62 0.70 0.78 0.84 0.91 0.86 0.76 0.67 0.62 0.54 0.48 0.46 0.41 0.42 0.44 0.47
0.19 0.16 0.13 0.09 0.09 0.11 0.09 0.04 0.03 0.04 0.02 0.04 0.07 0.07 0.11 0.11 0.07 0.08 0.09 0.11 0.16 0.20 0.25 0.40 0.59 0.65 0.69 0.74 0.74 0.78 0.80 0.76 0.75 0.70 0.63 0.56 0.50 0.46 0.45 0.42 0.42 0.41 0.44
0.14 0.13 0.10 0.07 0.07 0.09 0.12 0.11 0.03 0.01 0.01 0.01 0.03 0.04 0.05 0.08 0.07 0.06 0.09 0.13 0.18 0.25 0.31 0.50 0.66 0.70 0.71 0.72 0.68 0.68 0.69 0.65 0.62 0.60 0.59 0.54 0.50 0.47 0.45 0.42 0.40 0.40 0.43
0.09 0.09 0.07 0.07 0.08 0.10 0.13 0.20 0.23 0.12 0.03 0.02 0.02 0.04 0.05 0.07 0.07 0.06 0.08 0.13 0.17 0.24 0.32 0.52 0.69 0.79 0.79 0.72 0.65 0.62 0.67 0.68 0.64 0.61 0.56 0.53 0.47 0.42 0.40 0.39 0.36 0.35 0.37
0.05 0.05 0.05 0.08 0.07 0.07 0.08 0.12 0.21 0.26 0.23 0.16 0.08 0.05 0.06 0.08 0.10 0.10 0.11 0.15 0.21 0.26 0.37 0.52 0.64 0.68 0.70 0.70 0.64 0.61 0.65 0.67 0.64 0.57 0.51 0.48 0.42 0.38 0.36 0.37 0.34 0.27 0.27
0.03 0.06 0.05 0.04 0.04 0.05 0.06 0.07 0.11 0.16 0.21 0.22 0.19 0.12 0.09 0.11 0.14 0.16 0.16 0.19 0.25 0.29 0.36 0.45 0.53 0.54 0.51 0.52 0.51 0.51 0.55 0.59 0.54 0.45 0.42 0.42 0.38 0.33 0.33 0.33 0.28 0.19 0.19
0.03 0.02 0.02 0.02 0.03 0.03 0.04 0.06 0.07 0.11 0.16 0.21 0.19 0.15 0.14 0.21 0.28 0.27 0.20 0.18 0.18 0.22 0.29 0.37 0.43 0.41 0.38 0.37 0.34 0.33 0.36 0.39 0.37 0.34 0.32 0.31 0.31 0.30 0.28 0.25 0.22 0.19 0.18
0.02 0.02 0.01 0.01 0.03 0.03 0.02 0.03 0.03 0.06 0.11 0.15 0.13 0.10 0.15 0.22 0.30 0.31 0.29 0.26 0.24 0.23 0.24 0.26 0.30 0.33 0.32 0.29 0.25 0.22 0.23 0.24 0.24 0.25 0.26 0.26 0.26 0.25 0.20 0.17 0.13 0.10 0.10
0.01 0.01 0.01 0.02 0.02 0.02 0.01 0.01 0.01 0.03 0.07 0.10 0.11 0.10 0.14 0.18 0.22 0.24 0.29 0.33 0.32 0.29 0.25 0.23 0.23 0.26 0.29 0.28 0.22 0.18 0.17 0.18 0.20 0.23 0.24 0.24 0.22 0.18 0.14 0.11 0.08 0.06 0.06
0.00 0.00 0.00 0.01 0.00 0.00 0.00 0.00 0.01 0.01 0.04 0.06 0.08 0.10 0.12 0.16 0.19 0.21 0.25 0.30 0.33 0.31 0.26 0.22 0.22 0.25 0.27 0.27 0.23 0.17 0.14 0.14 0.16 0.18 0.23 0.23 0.19 0.15 0.11 0.08 0.05 0.04 0.03
0.00 0.00 0.00 0.00 0.00 0.00 0.00 0.00 0.00 0.00 0.01 0.02 0.05 0.07 0.10 0.14 0.15 0.17 0.21 0.25 0.29 0.30 0.29 0.27 0.26 0.26 0.25 0.24 0.21 0.13 0.10 0.11 0.12 0.14 0.18 0.20 0.17 0.13 0.08 0.06 0.04 0.03 0.02
0.00 0.00 0.00 0.00 0.00 0.00 0.00 0.00 0.00 0.00 0.01 0.01 0.02 0.03 0.05 0.07 0.10 0.11 0.15 0.19 0.22 0.25 0.25 0.24 0.24 0.22 0.20 0.17 0.14 0.10 0.09 0.11 0.12 0.12 0.14 0.15 0.12 0.10 0.08 0.06 0.04 0.03 0.03
0.00 0.00 0.00 0.00 0.00 0.00 0.00 0.01 0.01 0.01 0.01 0.01 0.01 0.02 0.02 0.03 0.05 0.07 0.08 0.09 0.12 0.16 0.19 0.20 0.20 0.17 0.12 0.08 0.07 0.07 0.07 0.05 0.05 0.06 0.10 0.13 0.11 0.09 0.08 0.07 0.04 0.03 0.02

GEFSGL_prec_meanprecacc_114.txt.gz
Total_Precipitation_Accumulation
0.43 0.44 0.41 0.39 0.37 0.35 0.34 0.33 0.30 0.28 0.26 0.25 0.23 0.20 0.18 0.18 0.17 0.19 0.22 0.22 0.21 0.20 0.20 0.20 0.21 0.21 0.22 0.22 0.23 0.24 0.26 0.30 0.34 0.24 0.16 0.14 0.17 0.20 0.22 0.24 0.22 0.20 0.18
0.35 0.32 0.29 0.27 0.25 0.24 0.22 0.21 0.19 0.18 0.18 0.18 0.17 0.17 0.14 0.14 0.15 0.16 0.16 0.16 0.17 0.17 0.16 0.16 0.16 0.17 0.19 0.18 0.18 0.18 0.20 0.25 0.32 0.31 0.21 0.16 0.15 0.18 0.21 0.23 0.16 0.14 0.17
0.33 0.32 0.30 0.25 0.22 0.21 0.19 0.17 0.16 0.16 0.15 0.14 0.12 0.12 0.10 0.10 0.10 0.10 0.11 0.11 0.11 0.11 0.10 0.11 0.11 0.12 0.13 0.13 0.14 0.16 0.18 0.20 0.27 0.30 0.22 0.17 0.13 0.12 0.20 0.23 0.22 0.27 0.16
0.31 0.31 0.33 0.31 0.26 0.22 0.20 0.18 0.14 0.12 0.10 0.09 0.08 0.07 0.07 0.06 0.06 0.05 0.05 0.05 0.05 0.04 0.04 0.05 0.06 0.08 0.12 0.15 0.14 0.16 0.20 0.23 0.24 0.27 0.23 0.18 0.16 0.16 0.29 0.37 0.34 0.29 0.22
0.29 0.29 0.30 0.30 0.26 0.22 0.19 0.16 0.12 0.09 0.08 0.07 0.06 0.05 0.05 0.04 0.03 0.02 0.01 0.02 0.02 0.03 0.03 0.04 0.05 0.07 0.13 0.15 0.16 0.19 0.24 0.28 0.29 0.33 0.30 0.26 0.23 0.30 0.39 0.41 0.38 0.29 0.22
0.32 0.31 0.28 0.25 0.22 0.19 0.16 0.14 0.11 0.10 0.08 0.08 0.06 0.05 0.04 0.03 0.02 0.01 0.01 0.02 0.03 0.05 0.06 0.07 0.06 0.05 0.08 0.09 0.11 0.15 0.22 0.29 0.35 0.40 0.39 0.36 0.32 0.40 0.48 0.49 0.51 0.45 0.36
0.37 0.35 0.32 0.27 0.22 0.17 0.12 0.12 0.11 0.11 0.09 0.08 0.06 0.05 0.05 0.03 0.01 0.01 0.01 0.02 0.05 0.09 0.11 0.11 0.08 0.08 0.12 0.15 0.12 0.10 0.14 0.21 0.34 0.48 0.51 0.45 0.44 0.50 0.60 0.61 0.58 0.55 0.47
0.39 0.34 0.28 0.25 0.22 0.17 0.13 0.11 0.10 0.11 0.10 0.09 0.08 0.07 0.09 0.04 0.00 0.00 0.00 0.02 0.07 0.09 0.10 0.11 0.15 0.19 0.15 0.10 0.08 0.13 0.23 0.35 0.40 0.43 0.51 0.48 0.46 0.51 0.61 0.63 0.59 0.54 0.49
0.35 0.27 0.22 0.20 0.18 0.15 0.13 0.11 0.10 0.10 0.10 0.09 0.08 0.09 0.12 0.08 0.01 0.00 0.00 0.03 0.06 0.07 0.07 0.09 0.12 0.17 0.13 0.11 0.12 0.21 0.30 0.40 0.34 0.43 0.49 0.55 0.60 0.60 0.55 0.56 0.66 0.70 0.65
0.22 0.17 0.15 0.15 0.12 0.11 0.10 0.09 0.10 0.10 0.10 0.09 0.09 0.10 0.12 0.12 0.03 0.00 0.01 0.04 0.08 0.08 0.11 0.16 0.13 0.10 0.11 0.12 0.14 0.25 0.37 0.41 0.52 0.70 0.84 0.90 0.85 0.77 0.63 0.63 0.76 0.81 0.81
0.13 0.12 0.13 0.12 0.12 0.10 0.11 0.12 0.12 0.12 0.14 0.14 0.13 0.13 0.13 0.08 0.03 0.01 0.02 0.05 0.08 0.10 0.16 0.25 0.25 0.14 0.14 0.12 0.14 0.26 0.40 0.47 0.71 1.02 1.07 0.96 0.82 0.72 0.65 0.62 0.66 0.74 0.80
0.14 0.14 0.13 0.11 0.07 0.06 0.12 0.14 0.13 0.16 0.19 0.18 0.17 0.16 0.14 0.12 0.05 0.02 0.01 0.02 0.04 0.12 0.25 0.27 0.25 0.21 0.18 0.17 0.23 0.37 0.47 0.65 0.91 1.10 1.03 0.84 0.67 0.56 0.51 0.47 0.49 0.55 0.63
0.19 0.19 0.14 0.11 0.08 0.07 0.10 0.13 0.14 0.16 0.15 0.13 0.13 0.12 0.12 0.14 0.10 0.02 0.02 0.02 0.04 0.11 0.23 0.26 0.26 0.25 0.28 0.41 0.48 0.55 0.66 0.84 1.00 0.98 0.84 0.74 0.61 0.52 0.46 0.44 0.44 0.47 0.49
0.26 0.22 0.18 0.16 0.11 0.08 0.09 0.08 0.10 0.11 0.11 0.11 0.11 0.11 0.12 0.14 0.10 0.06 0.06 0.07 0.10 0.15 0.23 0.35 0.45 0.49 0.53 0.62 0.70 0.78 0.84 0.92 0.87 0.77 0.67 0.63 0.54 0.48 0.46 0.42 0.43 0.45 0.47
0.22 0.18 0.15 0.11 0.10 0.12 0.10 0.05 0.04 0.05 0.03 0.05 0.07 0.07 0.11 0.11 0.07 0.08 0.09 0.11 0.16 0.20 0.25 0.40 0.59 0.65 0.70 0.74 0.74 0.78 0.80 0.76 0.75 0.70 0.63 0.56 0.50 0.46 0.45 0.42 0.42 0.41 0.45
0.16 0.15 0.11 0.08 0.07 0.10 0.13 0.11 0.03 0.01 0.01 0.01 0.03 0.04 0.05 0.08 0.07 0.06 0.09 0.13 0.18 0.25 0.31 0.50 0.66 0.70 0.71 0.72 0.68 0.68 0.69 0.65 0.62 0.60 0.59 0.55 0.50 0.47 0.45 0.42 0.40 0.40 0.44
0.11 0.10 0.08 0.07 0.08 0.10 0.13 0.21 0.23 0.12 0.03 0.02 0.02 0.04 0.05 0.07 0.07 0.06 0.08 0.13 0.17 0.24 0.32 0.52 0.69 0.79 0.79 0.72 0.65 0.62 0.67 0.68 0.64 0.61 0.56 0.53 0.47 0.42 0.40 0.39 0.36 0.35 0.37
0.06 0.06 0.05 0.08 0.07 0.07 0.08 0.12 0.22 0.26 0.23 0.16 0.08 0.05 0.06 0.08 0.10 0.10 0.11 0.15 0.21 0.26 0.37 0.52 0.64 0.69 0.70 0.70 0.64 0.61 0.65 0.67 0.64 0.57 0.51 0.48 0.43 0.38 0.36 0.37 0.34 0.28 0.28
0.04 0.06 0.05 0.04 0.04 0.05 0.06 0.07 0.11 0.16 0.21 0.22 0.19 0.12 0.09 0.11 0.14 0.16 0.16 0.19 0.25 0.29 0.36 0.45 0.53 0.54 0.51 0.52 0.51 0.51 0.55 0.59 0.54 0.45 0.42 0.42 0.38 0.33 0.33 0.33 0.28 0.19 0.20
0.03 0.02 0.02 0.02 0.03 0.03 0.04 0.06 0.07 0.11 0.16 0.21 0.19 0.15 0.14 0.21 0.28 0.27 0.20 0.18 0.18 0.22 0.29 0.37 0.43 0.41 0.38 0.37 0.34 0.33 0.36 0.39 0.37 0.34 0.32 0.31 0.31 0.30 0.28 0.25 0.23 0.20 0.19
0.02 0.02 0.01 0.01 0.03 0.03 0.02 0.03 0.03 0.06 0.11 0.15 0.13 0.10 0.15 0.22 0.30 0.31 0.29 0.26 0.24 0.23 0.24 0.26 0.30 0.33 0.32 0.29 0.25 0.22 0.23 0.24 0.24 0.25 0.26 0.26 0.26 0.25 0.20 0.17 0.13 0.10 0.10
0.01 0.01 0.01 0.02 0.02 0.02 0.01 0.01 0.01 0.03 0.07 0.10 0.11 0.10 0.14 0.18 0.22 0.24 0.29 0.33 0.32 0.29 0.25 0.23 0.23 0.26 0.29 0.28 0.22 0.18 0.17 0.18 0.20 0.23 0.24 0.24 0.22 0.18 0.14 0.11 0.08 0.06 0.06
0.00 0.00 0.00 0.01 0.00 0.00 0.00 0.00 0.01 0.01 0.04 0.06 0.08 0.10 0.12 0.16 0.19 0.21 0.25 0.30 0.33 0.31 0.26 0.22 0.22 0.25 0.27 0.27 0.23 0.17 0.14 0.14 0.16 0.18 0.23 0.23 0.19 0.15 0.11 0.08 0.05 0.04 0.03
0.00 0.00 0.00 0.00 0.00 0.00 0.00 0.00 0.00 0.00 0.01 0.02 0.05 0.07 0.10 0.14 0.15 0.17 0.21 0.25 0.29 0.30 0.29 0.27 0.26 0.26 0.25 0.24 0.21 0.13 0.10 0.11 0.12 0.14 0.18 0.20 0.17 0.13 0.08 0.06 0.04 0.03 0.02
0.00 0.00 0.00 0.00 0.00 0.00 0.00 0.00 0.00 0.00 0.01 0.01 0.02 0.03 0.05 0.07 0.10 0.11 0.15 0.19 0.22 0.25 0.25 0.24 0.24 0.22 0.20 0.17 0.14 0.10 0.09 0.11 0.12 0.12 0.14 0.15 0.12 0.10 0.08 0.06 0.04 0.03 0.03
0.00 0.00 0.00 0.00 0.00 0.00 0.00 0.01 0.01 0.01 0.01 0.01 0.01 0.02 0.02 0.03 0.05 0.07 0.08 0.09 0.12 0.16 0.19 0.20 0.20 0.17 0.12 0.08 0.07 0.07 0.07 0.05 0.05 0.06 0.10 0.13 0.11 0.09 0.08 0.07 0.04 0.03 0.03

GEFSGL_prec_meanprecacc_120.txt.gz
Total_Precipitation_Accumulation
0.45 0.45 0.41 0.40 0.38 0.35 0.35 0.35 0.32 0.29 0.27 0.26 0.23 0.21 0.19 0.19 0.19 0.21 0.24 0.26 0.27 0.26 0.25 0.25 0.27 0.27 0.28 0.28 0.29 0.31 0.34 0.39 0.45 0.36 0.26 0.23 0.23 0.25 0.26 0.28 0.25 0.22 0.19
0.37 0.34 0.31 0.27 0.26 0.25 0.23 0.22 0.20 0.19 0.18 0.18 0.18 0.17 0.15 0.15 0.16 0.17 0.18 0.19 0.21 0.22 0.21 0.21 0.21 0.22 0.24 0.24 0.24 0.24 0.26 0.31 0.39 0.38 0.27 0.21 0.20 0.22 0.24 0.26 0.17 0.15 0.17
0.34 0.33 0.32 0.27 0.23 0.22 0.20 0.18 0.17 0.17 0.16 0.14 0.13 0.12 0.11 0.11 0.11 0.12 0.12 0.13 0.14 0.14 0.14 0.14 0.14 0.16 0.18 0.17 0.18 0.19 0.21 0.24 0.30 0.34 0.26 0.21 0.17 0.15 0.22 0.25 0.23 0.28 0.16
0.32 0.32 0.35 0.33 0.27 0.23 0.21 0.19 0.15 0.13 0.11 0.10 0.08 0.08 0.08 0.07 0.06 0.06 0.06 0.06 0.07 0.07 0.07 0.07 0.08 0.10 0.14 0.17 0.16 0.18 0.21 0.25 0.26 0.29 0.25 0.20 0.18 0.18 0.30 0.38 0.36 0.31 0.22
0.30 0.31 0.32 0.32 0.28 0.23 0.20 0.17 0.14 0.10 0.09 0.08 0.07 0.06 0.05 0.04 0.03 0.02 0.02 0.02 0.03 0.04 0.04 0.05 0.06 0.08 0.14 0.16 0.17 0.20 0.25 0.30 0.31 0.35 0.32 0.28 0.25 0.32 0.41 0.43 0.39 0.30 0.23
0.34 0.33 0.30 0.26 0.24 0.21 0.18 0.16 0.13 0.12 0.10 0.09 0.08 0.05 0.04 0.03 0.03 0.02 0.02 0.03 0.04 0.06 0.07 0.07 0.06 0.06 0.08 0.09 0.11 0.15 0.23 0.31 0.37 0.43 0.41 0.38 0.35 0.42 0.50 0.51 0.53 0.49 0.41
0.40 0.36 0.33 0.29 0.23 0.18 0.14 0.14 0.14 0.15 0.13 0.11 0.08 0.06 0.06 0.03 0.01 0.01 0.01 0.03 0.06 0.10 0.12 0.12 0.09 0.08 0.12 0.15 0.12 0.11 0.15 0.21 0.35 0.50 0.54 0.47 0.46 0.53 0.62 0.64 0.61 0.59 0.52
0.41 0.36 0.30 0.28 0.24 0.19 0.15 0.14 0.13 0.15 0.15 0.13 0.10 0.09 0.09 0.04 0.01 0.00 0.00 0.04 0.08 0.10 0.11 0.13 0.17 0.20 0.16 0.11 0.09 0.14 0.24 0.35 0.40 0.44 0.52 0.49 0.47 0.52 0.62 0.65 0.61 0.56 0.52
0.37 0.29 0.24 0.22 0.20 0.17 0.16 0.14 0.13 0.14 0.15 0.13 0.11 0.11 0.13 0.09 0.01 0.00 0.01 0.05 0.08 0.09 0.08 0.09 0.12 0.17 0.13 0.11 0.14 0.24 0.32 0.40 0.34 0.43 0.49 0.55 0.60 0.60 0.56 0.56 0.68 0.73 0.70
0.24 0.18 0.17 0.17 0.15 0.14 0.13 0.12 0.13 0.13 0.13 0.11 0.11 0.11 0.13 0.12 0.03 0.00 0.01 0.05 0.09 0.09 0.12 0.16 0.13 0.10 0.11 0.12 0.16 0.28 0.39 0.43 0.53 0.71 0.85 0.90 0.85 0.77 0.64 0.64 0.78 0.85 0.85
0.15 0.14 0.15 0.15 0.15 0.14 0.14 0.15 0.14 0.14 0.17 0.16 0.15 0.14 0.14 0.08 0.03 0.01 0.02 0.05 0.08 0.10 0.16 0.25 0.25 0.14 0.14 0.12 0.15 0.28 0.41 0.48 0.72 1.03 1.09 0.97 0.84 0.74 0.66 0.63 0.68 0.76 0.83
0.16 0.17 0.16 0.15 0.09 0.08 0.15 0.17 0.17 0.20 0.22 0.21 0.19 0.16 0.15 0.12 0.05 0.02 0.01 0.02 0.04 0.12 0.25 0.27 0.25 0.21 0.18 0.17 0.23 0.37 0.47 0.65 0.92 1.11 1.05 0.86 0.68 0.57 0.51 0.47 0.50 0.56 0.64
0.23 0.23 0.19 0.14 0.12 0.10 0.14 0.17 0.19 0.20 0.19 0.15 0.15 0.13 0.12 0.14 0.10 0.02 0.02 0.02 0.04 0.11 0.23 0.26 0.26 0.25 0.28 0.41 0.48 0.55 0.66 0.85 1.01 0.99 0.85 0.74 0.61 0.52 0.46 0.45 0.44 0.48 0.49
0.31 0.26 0.22 0.19 0.15 0.12 0.12 0.11 0.14 0.15 0.15 0.13 0.12 0.12 0.13 0.14 0.10 0.06 0.06 0.07 0.10 0.15 0.23 0.35 0.45 0.49 0.53 0.62 0.70 0.78 0.84 0.92 0.87 0.77 0.67 0.63 0.54 0.48 0.46 0.42 0.43 0.45 0.48
0.27 0.22 0.19 0.14 0.13 0.16 0.13 0.06 0.05 0.05 0.04 0.06 0.08 0.08 0.11 0.12 0.07 0.08 0.09 0.11 0.16 0.20 0.25 0.41 0.60 0.66 0.70 0.74 0.74 0.78 0.80 0.76 0.76 0.70 0.63 0.56 0.50 0.46 0.45 0.42 0.42 0.41 0.45
0.22 0.18 0.14 0.10 0.09 0.11 0.14 0.11 0.03 0.01 0.01 0.01 0.03 0.04 0.05 0.08 0.07 0.06 0.09 0.13 0.18 0.25 0.31 0.50 0.66 0.70 0.71 0.72 0.68 0.68 0.69 0.65 0.62 0.61 0.59 0.55 0.50 0.47 0.45 0.42 0.40 0.40 0.44
0.16 0.13 0.09 0.08 0.09 0.11 0.15 0.22 0.23 0.12 0.03 0.02 0.02 0.04 0.05 0.07 0.07 0.06 0.08 0.13 0.17 0.24 0.32 0.52 0.69 0.79 0.79 0.72 0.65 0.62 0.67 0.68 0.64 0.61 0.56 0.53 0.47 0.42 0.40 0.39 0.36 0.35 0.37
0.07 0.06 0.06 0.09 0.07 0.07 0.09 0.13 0.22 0.27 0.23 0.16 0.08 0.05 0.06 0.08 0.10 0.10 0.11 0.15 0.21 0.26 0.37 0.52 0.64 0.69 0.70 0.70 0.64 0.61 0.65 0.67 0.64 0.57 0.51 0.48 0.43 0.38 0.36 0.37 0.34 0.28 0.28
0.04 0.06 0.06 0.05 0.04 0.05 0.06 0.07 0.11 0.16 0.22 0.23 0.19 0.12 0.09 0.11 0.14 0.16 0.16 0.19 0.25 0.29 0.36 0.45 0.53 0.54 0.51 0.52 0.51 0.51 0.55 0.59 0.54 0.45 0.42 0.42 0.38 0.33 0.33 0.33 0.28 0.19 0.20
0.03 0.02 0.02 0.02 0.03 0.03 0.04 0.06 0.07 0.11 0.16 0.21 0.19 0.15 0.14 0.21 0.28 0.27 0.20 0.18 0.18 0.22 0.29 0.37 0.43 0.41 0.38 0.37 0.34 0.33 0.36 0.39 0.37 0.34 0.32 0.31 0.31 0.30 0.28 0.25 0.23 0.20 0.19
0.02 0.02 0.01 0.01 0.03 0.03 0.02 0.03 0.03 0.06 0.11 0.15 0.13 0.10 0.15 0.22 0.30 0.31 0.29 0.26 0.24 0.23 0.24 0.26 0.30 0.33 0.32 0.29 0.25 0.22 0.23 0.24 0.24 0.25 0.26 0.26 0.26 0.25 0.20 0.17 0.13 0.10 0.10
0.01 0.01 0.01 0.02 0.02 0.02 0.01 0.01 0.01 0.03 0.07 0.10 0.11 0.10 0.14 0.18 0.22 0.24 0.29 0.33 0.32 0.29 0.25 0.23 0.23 0.26 0.29 0.28 0.22 0.18 0.17 0.18 0.20 0.23 0.24 0.24 0.22 0.18 0.14 0.11 0.08 0.06 0.06
0.00 0.00 0.00 0.01 0.00 0.00 0.00 0.00 0.01 0.01 0.04 0.06 0.08 0.10 0.12 0.16 0.19 0.21 0.25 0.30 0.33 0.31 0.26 0.22 0.22 0.25 0.27 0.27 0.23 0.17 0.14 0.14 0.16 0.18 0.23 0.23 0.19 0.15 0.11 0.08 0.05 0.04 0.03
0.00 0.00 0.00 0.00 0.00 0.00 0.00 0.00 0.00 0.00 0.01 0.02 0.05 0.07 0.10 0.14 0.15 0.17 0.21 0.25 0.29 0.30 0.29 0.27 0.26 0.26 0.25 0.24 0.21 0.13 0.10 0.11 0.12 0.14 0.18 0.20 0.17 0.13 0.08 0.06 0.04 0.03 0.02
0.00 0.00 0.00 0.00 0.00 0.00 0.00 0.00 0.00 0.00 0.01 0.01 0.02 0.03 0.05 0.07 0.10 0.11 0.15 0.19 0.22 0.25 0.25 0.24 0.24 0.22 0.20 0.17 0.14 0.10 0.09 0.11 0.12 0.12 0.14 0.15 0.12 0.10 0.08 0.06 0.04 0.04 0.03
0.00 0.00 0.00 0.00 0.00 0.00 0.00 0.01 0.01 0.01 0.01 0.01 0.01 0.02 0.02 0.03 0.05 0.07 0.08 0.09 0.12 0.16 0.19 0.20 0.20 0.17 0.12 0.08 0.07 0.07 0.07 0.05 0.05 0.06 0.10 0.14 0.11 0.09 0.08 0.07 0.04 0.03 0.03

GEFSGL_prec_meanprecacc_126.txt.gz
Total_Precipitation_Accumulation
0.48 0.48 0.44 0.42 0.39 0.36 0.35 0.35 0.32 0.30 0.28 0.26 0.24 0.21 0.20 0.20 0.21 0.23 0.26 0.27 0.29 0.29 0.28 0.28 0.30 0.29 0.30 0.31 0.32 0.34 0.37 0.44 0.51 0.43 0.33 0.29 0.29 0.30 0.31 0.31 0.28 0.24 0.20
0.38 0.35 0.32 0.29 0.27 0.25 0.24 0.23 0.20 0.20 0.19 0.19 0.19 0.18 0.15 0.15 0.17 0.19 0.20 0.20 0.23 0.24 0.23 0.23 0.23 0.24 0.26 0.26 0.27 0.27 0.29 0.35 0.43 0.43 0.32 0.25 0.23 0.25 0.27 0.28 0.19 0.16 0.18
0.35 0.34 0.32 0.27 0.23 0.22 0.21 0.19 0.18 0.17 0.17 0.15 0.13 0.13 0.11 0.11 0.11 0.12 0.13 0.14 0.15 0.16 0.16 0.16 0.17 0.17 0.19 0.19 0.20 0.21 0.23 0.25 0.32 0.36 0.28 0.23 0.19 0.17 0.24 0.26 0.24 0.29 0.17
0.32 0.33 0.36 0.34 0.28 0.24 0.22 0.20 0.16 0.13 0.12 0.11 0.09 0.08 0.08 0.07 0.07 0.06 0.06 0.07 0.08 0.08 0.08 0.09 0.09 0.11 0.15 0.18 0.17 0.19 0.22 0.25 0.27 0.30 0.26 0.21 0.19 0.19 0.31 0.39 0.36 0.31 0.22
0.31 0.32 0.33 0.33 0.29 0.24 0.21 0.18 0.15 0.11 0.09 0.09 0.08 0.07 0.06 0.05 0.03 0.02 0.02 0.03 0.04 0.05 0.05 0.06 0.06 0.09 0.14 0.17 0.18 0.21 0.26 0.30 0.31 0.35 0.33 0.29 0.27 0.33 0.42 0.43 0.40 0.30 0.24
0.34 0.34 0.31 0.27 0.24 0.22 0.19 0.16 0.14 0.12 0.11 0.10 0.09 0.07 0.06 0.04 0.03 0.02 0.02 0.04 0.05 0.06 0.08 0.08 0.07 0.07 0.09 0.10 0.12 0.16 0.24 0.31 0.38 0.43 0.41 0.39 0.35 0.43 0.51 0.52 0.53 0.49 0.41
0.40 0.37 0.34 0.29 0.24 0.19 0.14 0.15 0.15 0.15 0.14 0.11 0.08 0.07 0.07 0.04 0.02 0.01 0.02 0.04 0.07 0.10 0.13 0.13 0.10 0.09 0.14 0.16 0.13 0.11 0.15 0.21 0.35 0.50 0.54 0.48 0.46 0.53 0.63 0.64 0.61 0.60 0.53
0.42 0.36 0.30 0.28 0.25 0.19 0.16 0.14 0.13 0.15 0.15 0.14 0.11 0.09 0.10 0.05 0.02 0.01 0.01 0.04 0.08 0.11 0.12 0.13 0.17 0.21 0.17 0.12 0.10 0.14 0.24 0.36 0.41 0.45 0.52 0.49 0.47 0.52 0.62 0.65 0.61 0.56 0.52
0.38 0.30 0.25 0.23 0.21 0.18 0.16 0.14 0.14 0.15 0.15 0.13 0.11 0.12 0.13 0.09 0.02 0.01 0.01 0.05 0.08 0.09 0.08 0.10 0.13 0.18 0.14 0.11 0.14 0.24 0.33 0.41 0.35 0.43 0.49 0.55 0.60 0.60 0.56 0.56 0.68 0.73 0.70
0.25 0.19 0.18 0.18 0.16 0.14 0.13 0.13 0.13 0.14 0.14 0.12 0.11 0.12 0.13 0.12 0.03 0.01 0.01 0.06 0.09 0.09 0.12 0.16 0.13 0.10 0.11 0.12 0.16 0.28 0.39 0.43 0.53 0.71 0.85 0.90 0.85 0.77 0.64 0.64 0.79 0.85 0.85
0.16 0.15 0.16 0.16 0.16 0.14 0.15 0.15 0.15 0.15 0.17 0.17 0.15 0.14 0.14 0.08 0.03 0.01 0.02 0.05 0.08 0.11 0.16 0.25 0.25 0.14 0.14 0.12 0.15 0.28 0.41 0.48 0.72 1.03 1.09 0.98 0.84 0.74 0.66 0.63 0.68 0.76 0.84
0.17 0.17 0.16 0.15 0.09 0.08 0.16 0.18 0.17 0.21 0.22 0.21 0.19 0.17 0.15 0.12 0.05 0.02 0.01 0.02 0.04 0.12 0.25 0.27 0.25 0.21 0.18 0.17 0.23 0.37 0.47 0.65 0.92 1.12 1.05 0.86 0.68 0.57 0.52 0.47 0.50 0.56 0.65
0.24 0.24 0.19 0.15 0.12 0.11 0.14 0.18 0.20 0.21 0.19 0.16 0.15 0.14 0.12 0.14 0.10 0.02 0.02 0.02 0.04 0.11 0.23 0.26 0.26 0.25 0.28 0.41 0.48 0.55 0.66 0.85 1.01 0.99 0.85 0.74 0.61 0.52 0.46 0.45 0.44 0.48 0.49
0.31 0.27 0.22 0.20 0.16 0.13 0.13 0.12 0.14 0.15 0.15 0.13 0.13 0.12 0.13 0.14 0.10 0.06 0.06 0.07 0.10 0.15 0.23 0.35 0.45 0.49 0.53 0.62 0.70 0.78 0.84 0.92 0.87 0.77 0.67 0.63 0.54 0.48 0.46 0.42 0.43 0.45 0.48
0.28 0.23 0.19 0.15 0.13 0.16 0.13 0.06 0.05 0.06 0.04 0.06 0.08 0.08 0.11 0.12 0.07 0.08 0.09 0.11 0.16 0.20 0.25 0.41 0.60 0.66 0.70 0.74 0.74 0.78 0.80 0.76 0.76 0.70 0.64 0.56 0.50 0.46 0.45 0.42 0.42 0.41 0.45
0.22 0.19 0.14 0.10 0.10 0.11 0.14 0.12 0.04 0.01 0.01 0.01 0.03 0.04 0.05 0.08 0.07 0.06 0.09 0.13 0.18 0.25 0.31 0.50 0.66 0.70 0.71 0.72 0.68 0.68 0.69 0.65 0.62 0.61 0.59 0.55 0.50 0.47 0.45 0.42 0.40 0.40 0.44
0.16 0.14 0.10 0.08 0.09 0.11 0.15 0.22 0.23 0.12 0.03 0.02 0.02 0.04 0.05 0.07 0.07 0.06 0.08 0.13 0.17 0.24 0.32 0.52 0.69 0.79 0.79 0.72 0.65 0.62 0.67 0.68 0.64 0.61 0.56 0.53 0.47 0.42 0.40 0.39 0.36 0.35 0.37
0.07 0.07 0.06 0.09 0.08 0.07 0.09 0.13 0.22 0.27 0.23 0.16 0.08 0.05 0.06 0.08 0.10 0.10 0.11 0.15 0.21 0.26 0.37 0.52 0.64 0.69 0.70 0.70 0.64 0.61 0.65 0.67 0.64 0.57 0.51 0.48 0.43 0.38 0.36 0.37 0.34 0.28 0.28
0.04 0.07 0.06 0.05 0.05 0.05 0.06 0.07 0.11 0.16 0.22 0.23 0.19 0.12 0.09 0.11 0.14 0.16 0.16 0.19 0.25 0.29 0.36 0.45 0.53 0.54 0.51 0.52 0.51 0.51 0.55 0.59 0.54 0.45 0.42 0.42 0.38 0.33 0.33 0.33 0.28 0.19 0.20
0.03 0.02 0.02 0.02 0.03 0.03 0.04 0.06 0.08 0.11 0.16 0.21 0.19 0.15 0.14 0.21 0.28 0.27 0.20 0.18 0.18 0.22 0.29 0.37 0.43 0.41 0.38 0.37 0.34 0.33 0.36 0.39 0.37 0.34 0.32 0.31 0.31 0.30 0.28 0.25 0.23 0.20 0.19
0.02 0.02 0.01 0.01 0.03 0.03 0.02 0.03 0.03 0.06 0.11 0.15 0.13 0.10 0.15 0.22 0.30 0.31 0.29 0.26 0.24 0.23 0.24 0.26 0.30 0.33 0.32 0.29 0.25 0.22 0.23 0.24 0.24 0.25 0.26 0.26 0.26 0.25 0.20 0.17 0.13 0.10 0.10
0.01 0.01 0.01 0.02 0.02 0.02 0.01 0.01 0.01 0.03 0.07 0.10 0.11 0.10 0.14 0.18 0.22 0.24 0.29 0.33 0.32 0.29 0.25 0.23 0.23 0.26 0.29 0.28 0.22 0.18 0.17 0.18 0.20 0.23 0.24 0.24 0.22 0.18 0.14 0.11 0.08 0.06 0.06
0.00 0.00 0.00 0.01 0.00 0.00 0.00 0.00 0.01 0.01 0.04 0.06 0.08 0.10 0.12 0.16 0.19 0.21 0.25 0.30 0.33 0.31 0.26 0.22 0.22 0.25 0.27 0.27 0.23 0.17 0.14 0.14 0.16 0.18 0.23 0.23 0.19 0.15 0.11 0.08 0.05 0.04 0.03
0.00 0.00 0.00 0.00 0.00 0.00 0.00 0.00 0.00 0.00 0.01 0.02 0.05 0.07 0.10 0.14 0.15 0.17 0.21 0.25 0.29 0.30 0.29 0.27 0.26 0.26 0.25 0.24 0.21 0.13 0.10 0.11 0.12 0.14 0.18 0.20 0.17 0.13 0.08 0.06 0.04 0.03 0.03
0.00 0.00 0.00 0.00 0.00 0.00 0.00 0.00 0.00 0.00 0.01 0.01 0.02 0.03 0.05 0.07 0.10 0.11 0.15 0.19 0.22 0.25 0.25 0.24 0.24 0.22 0.20 0.17 0.14 0.10 0.09 0.11 0.12 0.12 0.14 0.15 0.12 0.10 0.08 0.06 0.04 0.04 0.03
0.00 0.00 0.00 0.00 0.00 0.00 0.00 0.01 0.01 0.01 0.01 0.01 0.01 0.02 0.02 0.03 0.05 0.07 0.08 0.09 0.12 0.16 0.19 0.20 0.20 0.17 0.12 0.08 0.07 0.07 0.07 0.05 0.05 0.06 0.10 0.14 0.11 0.09 0.08 0.07 0.05 0.04 0.03

GEFSGL_prec_meanprecacc_132.txt.gz
Total_Precipitation_Accumulation
0.48 0.48 0.45 0.43 0.41 0.38 0.36 0.35 0.32 0.30 0.28 0.26 0.24 0.21 0.20 0.20 0.22 0.26 0.28 0.29 0.30 0.31 0.29 0.29 0.31 0.33 0.34 0.35 0.37 0.40 0.44 0.50 0.57 0.51 0.40 0.35 0.35 0.37 0.38 0.36 0.33 0.29 0.24
0.39 0.36 0.33 0.29 0.28 0.27 0.25 0.24 0.21 0.20 0.19 0.19 0.19 0.18 0.16 0.16 0.19 0.21 0.21 0.22 0.25 0.27 0.26 0.25 0.25 0.26 0.29 0.29 0.30 0.31 0.34 0.41 0.49 0.51 0.39 0.31 0.29 0.30 0.31 0.31 0.21 0.18 0.20
0.35 0.34 0.33 0.28 0.24 0.23 0.21 0.20 0.18 0.18 0.17 0.15 0.14 0.14 0.12 0.12 0.13 0.15 0.15 0.16 0.18 0.20 0.19 0.19 0.19 0.20 0.22 0.22 0.23 0.25 0.27 0.30 0.37 0.41 0.32 0.26 0.21 0.19 0.26 0.27 0.25 0.30 0.18
0.33 0.33 0.36 0.34 0.28 0.24 0.23 0.21 0.17 0.14 0.13 0.11 0.10 0.10 0.10 0.09 0.09 0.08 0.07 0.09 0.12 0.12 0.12 0.12 0.13 0.15 0.18 0.21 0.20 0.22 0.25 0.28 0.29 0.32 0.28 0.23 0.21 0.20 0.32 0.40 0.37 0.31 0.23
0.31 0.32 0.33 0.33 0.29 0.25 0.21 0.19 0.16 0.12 0.11 0.10 0.09 0.10 0.09 0.08 0.06 0.04 0.04 0.05 0.07 0.08 0.08 0.08 0.08 0.11 0.16 0.19 0.20 0.23 0.27 0.32 0.33 0.36 0.34 0.30 0.27 0.34 0.43 0.44 0.40 0.31 0.24
0.35 0.35 0.31 0.28 0.25 0.22 0.19 0.17 0.15 0.14 0.13 0.11 0.10 0.10 0.09 0.09 0.08 0.06 0.04 0.05 0.06 0.08 0.09 0.09 0.08 0.08 0.10 0.11 0.13 0.17 0.24 0.32 0.39 0.44 0.42 0.39 0.36 0.43 0.51 0.52 0.54 0.49 0.41
0.40 0.37 0.34 0.30 0.25 0.20 0.16 0.16 0.15 0.16 0.16 0.13 0.10 0.10 0.11 0.09 0.08 0.06 0.05 0.05 0.07 0.12 0.14 0.15 0.11 0.10 0.15 0.17 0.15 0.12 0.16 0.22 0.36 0.51 0.55 0.48 0.46 0.53 0.63 0.64 0.61 0.60 0.53
0.42 0.37 0.31 0.29 0.25 0.20 0.16 0.15 0.14 0.16 0.16 0.15 0.12 0.11 0.12 0.09 0.08 0.05 0.03 0.06 0.10 0.12 0.13 0.15 0.19 0.22 0.18 0.14 0.11 0.16 0.26 0.37 0.42 0.45 0.53 0.49 0.47 0.52 0.62 0.65 0.61 0.56 0.52
0.38 0.31 0.25 0.23 0.21 0.18 0.17 0.15 0.14 0.15 0.16 0.14 0.12 0.13 0.14 0.11 0.06 0.05 0.03 0.07 0.09 0.10 0.10 0.11 0.14 0.19 0.15 0.13 0.15 0.25 0.34 0.42 0.35 0.43 0.49 0.55 0.60 0.60 0.56 0.56 0.68 0.73 0.70
0.26 0.20 0.18 0.18 0.16 0.14 0.14 0.13 0.13 0.14 0.14 0.12 0.12 0.12 0.14 0.13 0.04 0.02 0.03 0.07 0.10 0.10 0.13 0.17 0.14 0.11 0.13 0.14 0.18 0.29 0.40 0.43 0.53 0.71 0.85 0.91 0.85 0.77 0.64 0.64 0.79 0.85 0.85
0.16 0.15 0.16 0.16 0.16 0.14 0.15 0.16 0.15 0.15 0.17 0.17 0.16 0.14 0.14 0.09 0.04 0.01 0.02 0.06 0.08 0.11 0.17 0.25 0.26 0.15 0.15 0.13 0.16 0.29 0.42 0.48 0.72 1.04 1.10 0.98 0.85 0.74 0.66 0.63 0.68 0.76 0.84
0.17 0.17 0.16 0.15 0.10 0.08 0.16 0.18 0.18 0.21 0.23 0.22 0.19 0.17 0.15 0.12 0.05 0.02 0.01 0.03 0.05 0.13 0.25 0.27 0.25 0.21 0.18 0.18 0.25 0.39 0.48 0.66 0.92 1.12 1.05 0.86 0.68 0.57 0.52 0.47 0.50 0.56 0.65
0.24 0.24 0.19 0.15 0.12 0.11 0.14 0.18 0.20 0.21 0.20 0.16 0.15 0.14 0.12 0.14 0.10 0.02 0.02 0.02 0.04 0.11 0.23 0.26 0.26 0.25 0.28 0.41 0.48 0.56 0.67 0.85 1.01 0.99 0.85 0.74 0.61 0.52 0.46 0.45 0.44 0.48 0.49
0.32 0.27 0.22 0.20 0.16 0.13 0.13 0.12 0.15 0.16 0.15 0.14 0.13 0.12 0.13 0.14 0.10 0.06 0.06 0.07 0.10 0.15 0.23 0.35 0.45 0.49 0.53 0.62 0.70 0.78 0.84 0.92 0.87 0.77 0.67 0.63 0.54 0.48 0.46 0.42 0.43 0.45 0.48
0.28 0.23 0.19 0.15 0.14 0.16 0.13 0.06 0.05 0.06 0.04 0.06 0.08 0.08 0.11 0.12 0.07 0.08 0.09 0.11 0.16 0.20 0.25 0.41 0.60 0.66 0.70 0.74 0.74 0.78 0.80 0.76 0.76 0.70 0.64 0.56 0.50 0.46 0.45 0.42 0.42 0.41 0.45
0.23 0.19 0.14 0.11 0.10 0.11 0.14 0.12 0.04 0.01 0.01 0.01 0.03 0.04 0.05 0.08 0.07 0.06 0.09 0.13 0.18 0.25 0.31 0.50 0.66 0.70 0.71 0.72 0.68 0.68 0.69 0.65 0.62 0.61 0.59 0.55 0.50 0.47 0.45 0.42 0.40 0.40 0.44
0.17 0.14 0.10 0.09 0.09 0.11 0.15 0.22 0.23 0.12 0.03 0.02 0.02 0.04 0.05 0.07 0.07 0.06 0.08 0.13 0.17 0.24 0.32 0.52 0.69 0.79 0.79 0.72 0.65 0.62 0.67 0.68 0.64 0.61 0.56 0.53 0.47 0.42 0.40 0.39 0.36 0.35 0.37
0.07 0.07 0.06 0.09 0.08 0.07 0.09 0.13 0.22 0.27 0.23 0.16 0.08 0.05 0.06 0.08 0.10 0.10 0.11 0.15 0.21 0.26 0.37 0.52 0.64 0.69 0.70 0.70 0.64 0.61 0.65 0.67 0.64 0.57 0.51 0.48 0.43 0.38 0.36 0.37 0.34 0.28 0.28
0.04 0.07 0.06 0.05 0.05 0.05 0.06 0.07 0.11 0.16 0.22 0.23 0.19 0.12 0.09 0.11 0.14 0.16 0.16 0.19 0.25 0.29 0.36 0.45 0.53 0.54 0.51 0.52 0.51 0.51 0.55 0.59 0.54 0.45 0.42 0.42 0.38 0.33 0.33 0.33 0.28 0.19 0.20
0.03 0.02 0.02 0.02 0.03 0.03 0.04 0.06 0.08 0.11 0.16 0.21 0.19 0.15 0.14 0.21 0.28 0.27 0.20 0.18 0.18 0.22 0.29 0.37 0.43 0.41 0.38 0.37 0.34 0.33 0.36 0.39 0.37 0.34 0.32 0.31 0.31 0.30 0.28 0.25 0.23 0.20 0.19
0.02 0.02 0.01 0.01 0.03 0.03 0.02 0.03 0.03 0.06 0.11 0.15 0.13 0.10 0.15 0.22 0.30 0.31 0.29 0.26 0.24 0.23 0.24 0.26 0.30 0.33 0.32 0.29 0.25 0.22 0.23 0.24 0.24 0.25 0.26 0.26 0.26 0.25 0.20 0.17 0.13 0.10 0.10
0.01 0.01 0.01 0.02 0.02 0.02 0.01 0.01 0.01 0.03 0.07 0.10 0.11 0.10 0.14 0.18 0.22 0.24 0.29 0.33 0.32 0.29 0.25 0.23 0.23 0.26 0.29 0.28 0.22 0.18 0.17 0.18 0.20 0.23 0.24 0.24 0.22 0.18 0.14 0.11 0.08 0.06 0.06
0.00 0.00 0.00 0.01 0.00 0.00 0.00 0.00 0.01 0.01 0.04 0.06 0.08 0.10 0.12 0.16 0.19 0.21 0.25 0.30 0.33 0.31 0.26 0.22 0.22 0.25 0.27 0.27 0.23 0.17 0.14 0.14 0.16 0.18 0.23 0.23 0.19 0.15 0.11 0.08 0.05 0.04 0.03
0.00 0.00 0.00 0.00 0.00 0.00 0.00 0.00 0.00 0.00 0.01 0.02 0.05 0.07 0.10 0.14 0.15 0.17 0.21 0.25 0.29 0.30 0.29 0.27 0.26 0.26 0.25 0.24 0.21 0.13 0.10 0.11 0.12 0.14 0.18 0.20 0.17 0.13 0.08 0.06 0.04 0.03 0.03
0.00 0.00 0.00 0.00 0.00 0.00 0.00 0.00 0.00 0.00 0.01 0.01 0.02 0.03 0.05 0.07 0.10 0.11 0.15 0.19 0.22 0.25 0.25 0.24 0.24 0.22 0.20 0.17 0.14 0.10 0.09 0.11 0.12 0.12 0.14 0.15 0.12 0.10 0.08 0.06 0.04 0.04 0.03
0.00 0.00 0.00 0.00 0.00 0.00 0.00 0.01 0.01 0.01 0.01 0.01 0.01 0.02 0.02 0.03 0.05 0.07 0.08 0.09 0.12 0.16 0.19 0.20 0.20 0.17 0.12 0.08 0.07 0.07 0.07 0.05 0.05 0.06 0.10 0.14 0.11 0.09 0.08 0.07 0.05 0.04 0.03

GEFSGL_prec_meanprecacc_138.txt.gz
Total_Precipitation_Accumulation
0.50 0.50 0.46 0.44 0.42 0.38 0.37 0.36 0.33 0.31 0.28 0.27 0.24 0.22 0.20 0.21 0.23 0.26 0.29 0.30 0.31 0.31 0.30 0.30 0.33 0.35 0.36 0.37 0.39 0.42 0.47 0.54 0.63 0.58 0.47 0.42 0.41 0.42 0.43 0.42 0.39 0.36 0.33
0.41 0.38 0.34 0.30 0.29 0.27 0.26 0.24 0.21 0.20 0.19 0.19 0.20 0.19 0.16 0.17 0.20 0.23 0.24 0.24 0.27 0.29 0.28 0.27 0.27 0.29 0.32 0.31 0.32 0.33 0.37 0.45 0.54 0.58 0.47 0.38 0.36 0.36 0.36 0.35 0.26 0.23 0.25
0.37 0.35 0.34 0.28 0.25 0.24 0.22 0.20 0.19 0.18 0.17 0.16 0.14 0.14 0.13 0.13 0.15 0.16 0.17 0.19 0.21 0.23 0.22 0.21 0.21 0.23 0.25 0.24 0.26 0.28 0.30 0.34 0.42 0.47 0.39 0.33 0.28 0.25 0.31 0.31 0.28 0.32 0.20
0.35 0.35 0.37 0.35 0.29 0.26 0.23 0.21 0.18 0.15 0.14 0.12 0.11 0.11 0.11 0.10 0.10 0.09 0.09 0.12 0.15 0.16 0.15 0.16 0.17 0.18 0.20 0.23 0.23 0.25 0.28 0.31 0.34 0.37 0.33 0.27 0.25 0.23 0.35 0.43 0.39 0.33 0.24
0.32 0.33 0.34 0.34 0.30 0.26 0.22 0.20 0.17 0.14 0.12 0.12 0.10 0.11 0.11 0.09 0.06 0.05 0.06 0.07 0.10 0.11 0.11 0.11 0.12 0.14 0.18 0.20 0.21 0.25 0.30 0.35 0.36 0.39 0.37 0.32 0.30 0.37 0.45 0.45 0.42 0.32 0.25
0.36 0.36 0.32 0.29 0.26 0.23 0.21 0.18 0.17 0.16 0.15 0.13 0.12 0.12 0.11 0.11 0.10 0.08 0.07 0.07 0.08 0.10 0.12 0.11 0.10 0.10 0.11 0.12 0.14 0.18 0.27 0.35 0.43 0.48 0.45 0.43 0.39 0.46 0.53 0.53 0.55 0.51 0.43
0.41 0.38 0.35 0.31 0.26 0.21 0.17 0.18 0.16 0.17 0.18 0.15 0.11 0.12 0.13 0.11 0.11 0.09 0.09 0.09 0.10 0.13 0.16 0.16 0.13 0.11 0.16 0.18 0.16 0.13 0.17 0.24 0.39 0.55 0.59 0.52 0.50 0.56 0.65 0.66 0.64 0.62 0.56
0.44 0.38 0.32 0.30 0.26 0.21 0.17 0.18 0.15 0.17 0.19 0.18 0.13 0.13 0.15 0.12 0.11 0.11 0.10 0.12 0.12 0.13 0.15 0.17 0.21 0.24 0.20 0.15 0.13 0.17 0.27 0.38 0.44 0.49 0.57 0.52 0.49 0.53 0.64 0.67 0.63 0.59 0.54
0.39 0.32 0.26 0.24 0.22 0.19 0.17 0.16 0.15 0.16 0.18 0.18 0.14 0.14 0.16 0.15 0.12 0.12 0.11 0.13 0.14 0.13 0.12 0.13 0.16 0.21 0.17 0.14 0.17 0.28 0.37 0.44 0.37 0.45 0.52 0.58 0.61 0.60 0.56 0.58 0.71 0.75 0.73
0.26 0.20 0.19 0.19 0.17 0.15 0.14 0.14 0.14 0.15 0.17 0.15 0.14 0.14 0.15 0.15 0.08 0.08 0.10 0.12 0.15 0.14 0.15 0.19 0.16 0.13 0.14 0.15 0.20 0.32 0.43 0.46 0.55 0.72 0.87 0.93 0.86 0.78 0.64 0.65 0.81 0.87 0.88
0.17 0.16 0.17 0.18 0.17 0.15 0.16 0.17 0.16 0.16 0.19 0.20 0.17 0.16 0.15 0.10 0.06 0.05 0.06 0.08 0.11 0.13 0.19 0.27 0.28 0.17 0.16 0.14 0.18 0.31 0.44 0.51 0.75 1.06 1.11 1.00 0.86 0.76 0.67 0.64 0.69 0.77 0.85
0.19 0.18 0.18 0.17 0.10 0.09 0.17 0.20 0.18 0.22 0.24 0.23 0.20 0.18 0.16 0.13 0.07 0.03 0.02 0.03 0.05 0.13 0.27 0.28 0.26 0.22 0.19 0.20 0.26 0.40 0.49 0.67 0.94 1.13 1.06 0.87 0.69 0.58 0.53 0.48 0.51 0.57 0.66
0.26 0.26 0.21 0.16 0.13 0.12 0.16 0.19 0.21 0.22 0.21 0.17 0.16 0.14 0.13 0.14 0.10 0.03 0.02 0.02 0.04 0.11 0.24 0.27 0.27 0.26 0.29 0.42 0.49 0.57 0.68 0.86 1.03 1.01 0.87 0.75 0.62 0.52 0.47 0.45 0.44 0.48 0.49
0.34 0.29 0.24 0.22 0.18 0.15 0.15 0.12 0.15 0.17 0.16 0.14 0.13 0.12 0.13 0.14 0.10 0.06 0.06 0.07 0.10 0.15 0.24 0.35 0.45 0.49 0.53 0.63 0.71 0.78 0.85 0.93 0.88 0.78 0.68 0.63 0.54 0.48 0.46 0.42 0.43 0.45 0.48
0.30 0.24 0.21 0.17 0.15 0.17 0.14 0.07 0.06 0.06 0.04 0.07 0.08 0.08 0.11 0.12 0.07 0.08 0.10 0.11 0.16 0.20 0.25 0.41 0.60 0.66 0.70 0.74 0.74 0.78 0.80 0.76 0.76 0.71 0.64 0.56 0.50 0.46 0.45 0.42 0.42 0.41 0.45
0.24 0.20 0.16 0.12 0.10 0.12 0.14 0.12 0.04 0.01 0.01 0.01 0.03 0.04 0.05 0.08 0.07 0.06 0.09 0.13 0.18 0.25 0.31 0.50 0.66 0.70 0.71 0.72 0.68 0.68 0.69 0.65 0.62 0.61 0.59 0.55 0.50 0.47 0.45 0.42 0.40 0.40 0.44
0.18 0.16 0.10 0.09 0.09 0.11 0.15 0.22 0.24 0.12 0.03 0.02 0.02 0.04 0.05 0.07 0.07 0.06 0.08 0.13 0.17 0.24 0.32 0.52 0.69 0.79 0.79 0.72 0.65 0.62 0.67 0.68 0.64 0.61 0.56 0.53 0.47 0.42 0.40 0.39 0.36 0.35 0.37
0.08 0.07 0.06 0.09 0.08 0.08 0.09 0.13 0.22 0.27 0.23 0.16 0.08 0.05 0.06 0.08 0.10 0.10 0.11 0.15 0.21 0.26 0.37 0.52 0.64 0.69 0.70 0.70 0.64 0.61 0.65 0.67 0.64 0.57 0.51 0.48 0.43 0.38 0.36 0.37 0.34 0.28 0.28
0.05 0.07 0.06 0.05 0.05 0.05 0.06 0.07 0.11 0.16 0.22 0.23 0.19 0.12 0.09 0.11 0.14 0.16 0.16 0.19 0.25 0.29 0.36 0.45 0.53 0.54 0.51 0.52 0.51 0.51 0.55 0.59 0.54 0.45 0.42 0.42 0.38 0.33 0.33 0.33 0.28 0.19 0.20
0.04 0.02 0.02 0.02 0.03 0.03 0.04 0.06 0.08 0.11 0.16 0.21 0.19 0.15 0.14 0.21 0.28 0.27 0.20 0.18 0.18 0.22 0.29 0.37 0.43 0.41 0.38 0.37 0.34 0.33 0.36 0.39 0.37 0.34 0.32 0.31 0.31 0.30 0.28 0.25 0.23 0.20 0.19
0.02 0.02 0.01 0.01 0.03 0.03 0.03 0.03 0.03 0.06 0.11 0.15 0.13 0.10 0.15 0.22 0.30 0.31 0.29 0.26 0.24 0.23 0.24 0.26 0.30 0.33 0.32 0.29 0.25 0.22 0.23 0.24 0.24 0.25 0.26 0.26 0.26 0.25 0.20 0.17 0.13 0.10 0.10
0.01 0.01 0.01 0.02 0.02 0.02 0.01 0.01 0.01 0.03 0.07 0.10 0.11 0.10 0.14 0.18 0.22 0.24 0.29 0.33 0.32 0.29 0.25 0.23 0.23 0.26 0.29 0.28 0.22 0.18 0.17 0.18 0.20 0.23 0.24 0.24 0.22 0.18 0.14 0.11 0.08 0.06 0.06
0.00 0.00 0.00 0.01 0.00 0.00 0.00 0.00 0.01 0.01 0.04 0.06 0.08 0.10 0.12 0.16 0.19 0.21 0.25 0.30 0.33 0.31 0.26 0.22 0.22 0.25 0.27 0.27 0.23 0.17 0.14 0.14 0.16 0.18 0.23 0.23 0.19 0.15 0.11 0.08 0.05 0.04 0.03
0.00 0.00 0.00 0.00 0.00 0.00 0.00 0.00 0.00 0.00 0.01 0.02 0.05 0.07 0.10 0.14 0.15 0.17 0.21 0.25 0.29 0.30 0.29 0.27 0.26 0.26 0.25 0.24 0.21 0.13 0.10 0.11 0.12 0.14 0.18 0.20 0.17 0.13 0.08 0.06 0.04 0.03 0.03
0.00 0.00 0.00 0.00 0.00 0.00 0.00 0.00 0.00 0.00 0.01 0.01 0.02 0.03 0.05 0.07 0.10 0.11 0.15 0.19 0.22 0.25 0.25 0.24 0.24 0.22 0.20 0.17 0.14 0.10 0.09 0.11 0.12 0.12 0.14 0.15 0.12 0.10 0.08 0.06 0.04 0.04 0.03
0.00 0.00 0.00 0.00 0.00 0.00 0.00 0.01 0.01 0.01 0.01 0.01 0.01 0.02 0.02 0.03 0.05 0.07 0.08 0.09 0.12 0.16 0.19 0.20 0.20 0.17 0.12 0.08 0.07 0.07 0.07 0.05 0.05 0.06 0.10 0.14 0.11 0.09 0.08 0.07 0.05 0.04 0.03

GEFSGL_prec_meanprecacc_144.txt.gz
Total_Precipitation_Accumulation
0.53 0.53 0.49 0.46 0.45 0.41 0.39 0.39 0.35 0.32 0.29 0.28 0.26 0.23 0.22 0.22 0.24 0.28 0.31 0.31 0.33 0.33 0.31 0.31 0.34 0.37 0.39 0.39 0.42 0.47 0.52 0.58 0.67 0.61 0.50 0.46 0.45 0.46 0.47 0.45 0.42 0.39 0.37
0.44 0.40 0.37 0.34 0.32 0.30 0.28 0.27 0.23 0.22 0.20 0.20 0.20 0.20 0.17 0.18 0.21 0.24 0.25 0.25 0.29 0.31 0.30 0.29 0.29 0.30 0.34 0.34 0.36 0.38 0.41 0.48 0.58 0.61 0.51 0.43 0.40 0.40 0.40 0.39 0.28 0.25 0.28
0.40 0.39 0.38 0.32 0.27 0.26 0.25 0.22 0.20 0.19 0.18 0.16 0.15 0.15 0.14 0.15 0.17 0.18 0.19 0.21 0.23 0.25 0.24 0.24 0.24 0.25 0.27 0.28 0.30 0.31 0.34 0.37 0.45 0.50 0.43 0.36 0.31 0.28 0.35 0.35 0.31 0.35 0.22
0.42 0.42 0.42 0.39 0.31 0.28 0.25 0.22 0.19 0.16 0.15 0.13 0.12 0.12 0.13 0.12 0.11 0.11 0.12 0.14 0.18 0.18 0.17 0.18 0.20 0.20 0.22 0.25 0.26 0.28 0.31 0.35 0.38 0.40 0.36 0.30 0.28 0.26 0.38 0.46 0.42 0.36 0.26
0.38 0.39 0.38 0.36 0.32 0.27 0.23 0.21 0.18 0.15 0.13 0.14 0.12 0.12 0.12 0.10 0.08 0.06 0.08 0.09 0.13 0.13 0.13 0.12 0.13 0.15 0.19 0.22 0.24 0.27 0.33 0.39 0.40 0.44 0.41 0.36 0.33 0.39 0.48 0.47 0.44 0.34 0.27
0.39 0.39 0.34 0.31 0.28 0.25 0.22 0.19 0.18 0.17 0.16 0.14 0.13 0.13 0.12 0.11 0.11 0.08 0.08 0.10 0.12 0.14 0.14 0.13 0.11 0.11 0.12 0.14 0.17 0.21 0.30 0.39 0.47 0.52 0.50 0.48 0.44 0.50 0.56 0.55 0.57 0.54 0.46
0.44 0.40 0.37 0.33 0.28 0.22 0.18 0.19 0.18 0.19 0.20 0.17 0.13 0.14 0.14 0.12 0.11 0.10 0.09 0.11 0.13 0.17 0.18 0.18 0.13 0.12 0.17 0.20 0.17 0.15 0.20 0.27 0.42 0.59 0.65 0.58 0.56 0.61 0.69 0.69 0.66 0.65 0.59
0.46 0.39 0.32 0.31 0.28 0.22 0.19 0.20 0.18 0.19 0.21 0.20 0.16 0.15 0.17 0.13 0.13 0.11 0.11 0.14 0.15 0.16 0.17 0.19 0.23 0.25 0.21 0.17 0.15 0.19 0.29 0.39 0.45 0.51 0.60 0.56 0.52 0.56 0.66 0.69 0.65 0.61 0.56
0.40 0.33 0.27 0.26 0.24 0.21 0.20 0.19 0.19 0.19 0.20 0.20 0.16 0.17 0.19 0.17 0.14 0.14 0.13 0.17 0.17 0.15 0.13 0.14 0.18 0.22 0.18 0.15 0.20 0.30 0.39 0.45 0.38 0.46 0.54 0.59 0.63 0.61 0.57 0.60 0.73 0.78 0.76
0.28 0.21 0.20 0.21 0.20 0.17 0.16 0.17 0.17 0.18 0.20 0.17 0.16 0.16 0.18 0.18 0.11 0.10 0.12 0.17 0.21 0.17 0.18 0.21 0.18 0.14 0.15 0.16 0.24 0.36 0.46 0.48 0.56 0.73 0.89 0.95 0.89 0.79 0.65 0.67 0.83 0.90 0.91
0.18 0.16 0.18 0.21 0.20 0.18 0.18 0.20 0.19 0.19 0.23 0.22 0.20 0.18 0.17 0.13 0.09 0.06 0.08 0.13 0.18 0.18 0.23 0.30 0.29 0.18 0.18 0.15 0.20 0.33 0.45 0.52 0.77 1.07 1.13 1.03 0.89 0.78 0.69 0.65 0.70 0.78 0.87
0.20 0.21 0.21 0.20 0.12 0.11 0.21 0.23 0.21 0.25 0.28 0.26 0.23 0.20 0.17 0.16 0.09 0.04 0.04 0.07 0.11 0.18 0.31 0.31 0.28 0.23 0.21 0.20 0.27 0.41 0.50 0.68 0.96 1.15 1.08 0.89 0.71 0.60 0.54 0.49 0.51 0.57 0.66
0.29 0.29 0.23 0.18 0.15 0.14 0.18 0.22 0.23 0.24 0.22 0.18 0.17 0.15 0.14 0.16 0.11 0.03 0.03 0.04 0.07 0.14 0.25 0.28 0.28 0.26 0.29 0.43 0.50 0.58 0.68 0.87 1.05 1.02 0.88 0.77 0.63 0.53 0.47 0.46 0.45 0.48 0.50
0.37 0.32 0.27 0.24 0.20 0.17 0.16 0.13 0.16 0.17 0.17 0.15 0.14 0.13 0.13 0.15 0.10 0.07 0.06 0.08 0.11 0.15 0.24 0.35 0.46 0.50 0.54 0.63 0.71 0.79 0.86 0.93 0.89 0.79 0.70 0.65 0.55 0.49 0.46 0.42 0.43 0.45 0.48
0.33 0.27 0.23 0.19 0.17 0.19 0.15 0.07 0.06 0.07 0.04 0.07 0.08 0.08 0.11 0.12 0.07 0.08 0.10 0.11 0.16 0.21 0.25 0.41 0.61 0.66 0.70 0.75 0.74 0.78 0.80 0.77 0.76 0.71 0.65 0.57 0.51 0.47 0.46 0.42 0.42 0.41 0.45
0.27 0.23 0.17 0.13 0.11 0.12 0.14 0.12 0.04 0.01 0.01 0.01 0.03 0.04 0.05 0.08 0.07 0.06 0.09 0.13 0.18 0.25 0.31 0.50 0.67 0.71 0.72 0.72 0.68 0.68 0.69 0.65 0.62 0.61 0.60 0.55 0.50 0.47 0.45 0.42 0.40 0.40 0.44
0.20 0.17 0.12 0.10 0.10 0.12 0.15 0.22 0.24 0.12 0.03 0.02 0.02 0.04 0.05 0.07 0.07 0.06 0.08 0.13 0.17 0.24 0.32 0.52 0.69 0.79 0.79 0.72 0.65 0.62 0.67 0.68 0.64 0.61 0.56 0.53 0.47 0.42 0.40 0.39 0.36 0.35 0.37
0.09 0.08 0.07 0.10 0.08 0.08 0.09 0.13 0.22 0.27 0.23 0.16 0.08 0.05 0.06 0.08 0.10 0.10 0.11 0.15 0.21 0.26 0.37 0.52 0.64 0.69 0.70 0.70 0.64 0.61 0.65 0.67 0.64 0.57 0.51 0.48 0.43 0.38 0.36 0.37 0.34 0.28 0.28
0.06 0.08 0.06 0.05 0.05 0.05 0.06 0.08 0.11 0.16 0.22 0.23 0.19 0.12 0.09 0.11 0.14 0.16 0.16 0.19 0.25 0.29 0.36 0.45 0.53 0.54 0.51 0.52 0.51 0.51 0.55 0.59 0.54 0.45 0.42 0.42 0.38 0.33 0.33 0.33 0.28 0.19 0.20
0.05 0.03 0.02 0.02 0.03 0.03 0.04 0.06 0.08 0.11 0.16 0.21 0.19 0.15 0.14 0.21 0.28 0.27 0.20 0.18 0.18 0.22 0.29 0.37 0.43 0.41 0.38 0.37 0.34 0.33 0.36 0.39 0.37 0.34 0.32 0.31 0.31 0.30 0.28 0.25 0.23 0.20 0.19
0.03 0.02 0.01 0.01 0.03 0.04 0.03 0.03 0.03 0.06 0.11 0.15 0.13 0.10 0.15 0.22 0.30 0.31 0.29 0.26 0.24 0.23 0.24 0.26 0.30 0.33 0.32 0.29 0.25 0.22 0.23 0.24 0.24 0.25 0.26 0.26 0.26 0.25 0.20 0.17 0.13 0.10 0.10
0.01 0.01 0.01 0.02 0.02 0.02 0.01 0.01 0.01 0.03 0.07 0.10 0.11 0.10 0.14 0.18 0.22 0.24 0.29 0.33 0.32 0.29 0.25 0.23 0.23 0.26 0.29 0.28 0.22 0.18 0.17 0.18 0.20 0.23 0.24 0.24 0.22 0.18 0.14 0.11 0.08 0.06 0.06
0.00 0.00 0.00 0.01 0.00 0.00 0.00 0.00 0.01 0.01 0.04 0.06 0.08 0.10 0.12 0.16 0.19 0.21 0.25 0.30 0.33 0.31 0.26 0.22 0.22 0.25 0.27 0.27 0.23 0.17 0.14 0.14 0.16 0.18 0.23 0.23 0.19 0.15 0.11 0.08 0.05 0.04 0.03
0.00 0.00 0.00 0.00 0.00 0.00 0.00 0.00 0.00 0.00 0.01 0.02 0.05 0.07 0.10 0.14 0.15 0.17 0.21 0.25 0.29 0.30 0.29 0.27 0.26 0.26 0.25 0.24 0.21 0.13 0.10 0.11 0.12 0.14 0.18 0.20 0.17 0.13 0.08 0.06 0.04 0.04 0.03
0.00 0.00 0.00 0.00 0.00 0.00 0.00 0.00 0.00 0.00 0.01 0.01 0.02 0.03 0.05 0.08 0.10 0.11 0.15 0.19 0.22 0.25 0.25 0.24 0.24 0.22 0.20 0.17 0.14 0.10 0.10 0.11 0.12 0.13 0.15 0.16 0.13 0.11 0.08 0.07 0.05 0.04 0.04
0.00 0.00 0.00 0.00 0.00 0.00 0.00 0.01 0.01 0.01 0.01 0.01 0.01 0.02 0.02 0.03 0.05 0.07 0.08 0.09 0.12 0.16 0.19 0.20 0.20 0.17 0.12 0.08 0.08 0.08 0.07 0.06 0.05 0.07 0.10 0.14 0.12 0.10 0.09 0.08 0.05 0.04 0.04

GEFSGL_prec_meanprecacc_150.txt.gz
Total_Precipitation_Accumulation
0.56 0.55 0.51 0.49 0.47 0.42 0.40 0.39 0.36 0.32 0.30 0.28 0.26 0.23 0.22 0.22 0.25 0.29 0.32 0.33 0.35 0.35 0.33 0.33 0.37 0.40 0.44 0.42 0.45 0.50 0.54 0.60 0.70 0.64 0.51 0.48 0.47 0.47 0.49 0.48 0.45 0.41 0.39
0.46 0.42 0.39 0.35 0.33 0.31 0.29 0.27 0.24 0.22 0.20 0.20 0.20 0.20 0.18 0.18 0.22 0.25 0.25 0.26 0.30 0.33 0.31 0.30 0.31 0.33 0.38 0.36 0.37 0.40 0.43 0.50 0.60 0.64 0.53 0.45 0.41 0.41 0.41 0.40 0.31 0.28 0.30
0.42 0.41 0.39 0.33 0.29 0.28 0.26 0.23 0.21 0.20 0.19 0.17 0.15 0.16 0.15 0.15 0.18 0.20 0.20 0.23 0.25 0.27 0.25 0.25 0.26 0.27 0.29 0.29 0.31 0.32 0.35 0.39 0.47 0.52 0.45 0.38 0.33 0.30 0.37 0.37 0.32 0.36 0.23
0.44 0.45 0.47 0.45 0.37 0.33 0.30 0.25 0.20 0.17 0.15 0.13 0.12 0.13 0.14 0.13 0.13 0.14 0.13 0.16 0.19 0.19 0.17 0.18 0.21 0.22 0.23 0.26 0.26 0.29 0.32 0.37 0.40 0.43 0.39 0.32 0.30 0.28 0.39 0.47 0.43 0.37 0.27
0.40 0.42 0.43 0.42 0.39 0.34 0.30 0.27 0.22 0.16 0.13 0.14 0.12 0.13 0.13 0.11 0.09 0.09 0.11 0.11 0.14 0.14 0.14 0.13 0.14 0.17 0.21 0.23 0.25 0.28 0.34 0.40 0.42 0.47 0.44 0.38 0.35 0.41 0.49 0.48 0.45 0.35 0.27
0.41 0.40 0.36 0.32 0.29 0.26 0.23 0.20 0.19 0.17 0.16 0.14 0.13 0.13 0.13 0.12 0.13 0.12 0.10 0.12 0.14 0.15 0.16 0.14 0.12 0.12 0.14 0.16 0.19 0.23 0.31 0.40 0.49 0.55 0.53 0.50 0.46 0.52 0.58 0.57 0.58 0.55 0.47
0.46 0.41 0.37 0.34 0.29 0.22 0.18 0.19 0.19 0.19 0.20 0.17 0.13 0.14 0.15 0.13 0.13 0.13 0.12 0.13 0.15 0.19 0.20 0.20 0.15 0.13 0.19 0.21 0.18 0.16 0.21 0.28 0.44 0.61 0.67 0.60 0.58 0.63 0.71 0.71 0.68 0.66 0.59
0.46 0.39 0.33 0.32 0.28 0.23 0.19 0.20 0.19 0.20 0.21 0.21 0.16 0.15 0.17 0.14 0.14 0.13 0.13 0.15 0.16 0.17 0.18 0.20 0.25 0.27 0.21 0.17 0.16 0.20 0.30 0.41 0.47 0.53 0.63 0.58 0.54 0.58 0.68 0.71 0.66 0.62 0.57
0.41 0.33 0.27 0.26 0.25 0.22 0.20 0.19 0.19 0.20 0.21 0.21 0.17 0.17 0.20 0.18 0.15 0.15 0.16 0.19 0.18 0.15 0.13 0.14 0.19 0.23 0.18 0.16 0.21 0.31 0.40 0.47 0.40 0.49 0.57 0.62 0.65 0.63 0.58 0.61 0.74 0.79 0.77
0.29 0.22 0.20 0.22 0.20 0.18 0.17 0.17 0.17 0.19 0.20 0.19 0.18 0.18 0.19 0.19 0.12 0.11 0.14 0.19 0.22 0.18 0.18 0.21 0.18 0.15 0.16 0.17 0.24 0.36 0.47 0.50 0.57 0.75 0.91 0.97 0.90 0.80 0.66 0.68 0.84 0.91 0.92
0.19 0.17 0.19 0.21 0.21 0.18 0.19 0.20 0.19 0.19 0.24 0.24 0.21 0.19 0.19 0.15 0.10 0.07 0.10 0.14 0.19 0.19 0.24 0.31 0.30 0.19 0.19 0.16 0.21 0.34 0.47 0.54 0.78 1.08 1.15 1.04 0.90 0.79 0.70 0.67 0.71 0.80 0.88
0.22 0.22 0.22 0.21 0.13 0.12 0.21 0.23 0.21 0.25 0.28 0.26 0.24 0.22 0.19 0.17 0.10 0.05 0.06 0.09 0.12 0.19 0.32 0.32 0.29 0.25 0.22 0.22 0.28 0.43 0.51 0.70 0.97 1.16 1.09 0.90 0.72 0.61 0.55 0.50 0.53 0.59 0.68
0.31 0.31 0.25 0.19 0.16 0.14 0.19 0.22 0.23 0.25 0.23 0.18 0.18 0.16 0.15 0.17 0.12 0.04 0.04 0.05 0.09 0.15 0.26 0.30 0.29 0.27 0.31 0.44 0.51 0.60 0.70 0.88 1.06 1.03 0.89 0.77 0.64 0.54 0.48 0.47 0.45 0.49 0.50
0.38 0.33 0.27 0.25 0.20 0.17 0.16 0.13 0.17 0.17 0.17 0.15 0.14 0.13 0.14 0.16 0.12 0.07 0.07 0.09 0.12 0.16 0.25 0.37 0.46 0.50 0.54 0.64 0.72 0.80 0.86 0.94 0.90 0.80 0.70 0.65 0.55 0.49 0.47 0.43 0.44 0.46 0.48
0.34 0.28 0.24 0.19 0.17 0.19 0.15 0.07 0.06 0.07 0.04 0.07 0.09 0.08 0.12 0.13 0.08 0.09 0.10 0.12 0.17 0.21 0.26 0.42 0.61 0.67 0.71 0.75 0.75 0.79 0.81 0.77 0.77 0.72 0.65 0.58 0.51 0.47 0.46 0.42 0.43 0.41 0.45
0.28 0.24 0.18 0.13 0.12 0.13 0.14 0.12 0.04 0.01 0.01 0.01 0.03 0.04 0.06 0.08 0.07 0.06 0.09 0.13 0.19 0.25 0.32 0.51 0.67 0.71 0.72 0.72 0.69 0.69 0.69 0.66 0.62 0.61 0.60 0.55 0.51 0.47 0.45 0.42 0.41 0.41 0.44
0.21 0.18 0.12 0.10 0.11 0.12 0.16 0.22 0.24 0.12 0.03 0.02 0.02 0.04 0.05 0.07 0.07 0.06 0.08 0.13 0.17 0.24 0.32 0.52 0.69 0.79 0.79 0.72 0.65 0.62 0.67 0.68 0.64 0.61 0.56 0.53 0.47 0.42 0.40 0.39 0.36 0.35 0.37
0.10 0.08 0.07 0.10 0.08 0.08 0.09 0.13 0.22 0.27 0.23 0.16 0.08 0.05 0.06 0.08 0.10 0.10 0.11 0.15 0.21 0.26 0.37 0.52 0.64 0.69 0.70 0.70 0.64 0.61 0.65 0.67 0.64 0.57 0.51 0.48 0.43 0.38 0.36 0.37 0.34 0.28 0.28
0.07 0.08 0.06 0.05 0.05 0.05 0.06 0.08 0.11 0.16 0.22 0.23 0.19 0.12 0.09 0.11 0.14 0.16 0.16 0.19 0.25 0.29 0.36 0.45 0.53 0.54 0.51 0.52 0.51 0.51 0.55 0.59 0.54 0.45 0.42 0.42 0.38 0.33 0.33 0.33 0.28 0.19 0.20
0.05 0.03 0.02 0.02 0.03 0.03 0.04 0.06 0.08 0.11 0.16 0.21 0.19 0.15 0.14 0.21 0.28 0.27 0.20 0.18 0.18 0.22 0.29 0.37 0.43 0.41 0.38 0.37 0.34 0.33 0.36 0.39 0.37 0.34 0.32 0.31 0.31 0.30 0.28 0.25 0.23 0.20 0.19
0.03 0.02 0.01 0.01 0.03 0.04 0.03 0.03 0.03 0.06 0.11 0.15 0.13 0.10 0.15 0.22 0.30 0.31 0.29 0.26 0.24 0.23 0.24 0.26 0.30 0.33 0.32 0.29 0.25 0.22 0.23 0.24 0.25 0.26 0.26 0.27 0.26 0.25 0.20 0.17 0.13 0.10 0.10
0.02 0.01 0.01 0.02 0.02 0.02 0.01 0.01 0.01 0.03 0.07 0.10 0.11 0.10 0.14 0.18 0.22 0.24 0.29 0.33 0.32 0.29 0.25 0.23 0.23 0.26 0.29 0.28 0.23 0.19 0.18 0.19 0.21 0.24 0.25 0.25 0.22 0.18 0.14 0.12 0.09 0.07 0.06
0.00 0.00 0.00 0.01 0.00 0.00 0.00 0.00 0.01 0.01 0.04 0.06 0.08 0.10 0.12 0.16 0.19 0.21 0.25 0.30 0.33 0.31 0.26 0.23 0.23 0.26 0.28 0.28 0.25 0.18 0.15 0.15 0.17 0.19 0.24 0.24 0.20 0.16 0.12 0.09 0.06 0.05 0.04
0.00 0.00 0.00 0.00 0.00 0.00 0.00 0.00 0.00 0.00 0.01 0.02 0.05 0.07 0.10 0.14 0.15 0.17 0.21 0.26 0.29 0.31 0.29 0.28 0.27 0.27 0.26 0.25 0.22 0.14 0.11 0.12 0.13 0.15 0.19 0.21 0.18 0.14 0.09 0.08 0.06 0.06 0.05
0.00 0.00 0.00 0.00 0.00 0.00 0.00 0.00 0.00 0.01 0.01 0.01 0.02 0.03 0.05 0.08 0.10 0.11 0.15 0.19 0.22 0.25 0.25 0.24 0.25 0.23 0.20 0.17 0.15 0.10 0.10 0.12 0.13 0.13 0.15 0.16 0.14 0.12 0.10 0.09 0.07 0.06 0.05
0.00 0.00 0.00 0.00 0.00 0.00 0.00 0.01 0.01 0.01 0.01 0.01 0.01 0.02 0.03 0.03 0.05 0.07 0.08 0.09 0.12 0.16 0.19 0.21 0.21 0.18 0.13 0.10 0.09 0.10 0.09 0.08 0.07 0.08 0.12 0.15 0.13 0.11 0.10 0.09 0.06 0.05 0.05

GEFSGL_prec_meanprecacc_156.txt.gz
Total_Precipitation_Accumulation
0.59 0.58 0.54 0.51 0.48 0.43 0.41 0.40 0.36 0.34 0.31 0.29 0.27 0.24 0.23 0.23 0.25 0.30 0.32 0.33 0.35 0.37 0.37 0.37 0.41 0.43 0.47 0.45 0.46 0.52 0.58 0.65 0.75 0.67 0.54 0.51 0.49 0.49 0.51 0.50 0.46 0.43 0.41
0.48 0.44 0.41 0.37 0.35 0.33 0.31 0.29 0.25 0.23 0.22 0.22 0.22 0.21 0.19 0.19 0.23 0.26 0.26 0.27 0.31 0.35 0.35 0.33 0.34 0.37 0.41 0.38 0.39 0.42 0.45 0.53 0.62 0.66 0.56 0.48 0.45 0.43 0.43 0.42 0.33 0.30 0.32
0.43 0.42 0.40 0.35 0.31 0.30 0.29 0.25 0.22 0.21 0.20 0.18 0.17 0.17 0.16 0.16 0.19 0.20 0.21 0.24 0.27 0.30 0.29 0.28 0.30 0.31 0.33 0.31 0.33 0.34 0.37 0.41 0.49 0.54 0.48 0.41 0.35 0.32 0.38 0.38 0.34 0.39 0.26
0.45 0.46 0.47 0.46 0.39 0.35 0.31 0.27 0.23 0.20 0.18 0.15 0.14 0.14 0.15 0.13 0.14 0.15 0.15 0.18 0.22 0.22 0.20 0.21 0.24 0.24 0.25 0.28 0.28 0.31 0.34 0.39 0.43 0.45 0.42 0.35 0.32 0.30 0.40 0.49 0.45 0.38 0.29
0.41 0.43 0.43 0.43 0.40 0.35 0.31 0.29 0.27 0.22 0.20 0.19 0.17 0.16 0.14 0.12 0.10 0.10 0.12 0.13 0.17 0.17 0.16 0.15 0.17 0.18 0.22 0.25 0.26 0.30 0.35 0.43 0.45 0.49 0.46 0.41 0.38 0.44 0.51 0.49 0.46 0.36 0.28
0.42 0.42 0.37 0.33 0.30 0.26 0.24 0.21 0.20 0.20 0.20 0.19 0.18 0.17 0.14 0.13 0.13 0.14 0.13 0.15 0.16 0.17 0.18 0.16 0.14 0.14 0.15 0.18 0.20 0.25 0.34 0.42 0.51 0.57 0.55 0.52 0.48 0.54 0.59 0.57 0.59 0.56 0.48
0.47 0.43 0.39 0.35 0.29 0.23 0.18 0.20 0.19 0.20 0.20 0.17 0.14 0.15 0.16 0.14 0.13 0.15 0.14 0.15 0.17 0.21 0.21 0.21 0.16 0.15 0.21 0.23 0.20 0.18 0.23 0.31 0.46 0.63 0.70 0.63 0.60 0.66 0.74 0.72 0.69 0.67 0.60
0.47 0.40 0.33 0.32 0.28 0.23 0.20 0.21 0.20 0.21 0.22 0.21 0.16 0.16 0.17 0.14 0.15 0.16 0.15 0.18 0.18 0.19 0.19 0.20 0.26 0.28 0.23 0.19 0.17 0.21 0.30 0.41 0.48 0.55 0.64 0.60 0.56 0.61 0.71 0.74 0.68 0.63 0.58
0.43 0.34 0.28 0.26 0.25 0.22 0.20 0.19 0.19 0.21 0.22 0.21 0.17 0.18 0.21 0.19 0.18 0.18 0.18 0.21 0.20 0.17 0.15 0.16 0.20 0.25 0.20 0.19 0.22 0.32 0.40 0.47 0.41 0.51 0.58 0.64 0.68 0.66 0.61 0.63 0.75 0.80 0.78
0.32 0.24 0.21 0.22 0.21 0.18 0.17 0.17 0.18 0.19 0.22 0.19 0.19 0.18 0.20 0.20 0.13 0.13 0.17 0.22 0.24 0.19 0.19 0.22 0.20 0.18 0.19 0.20 0.26 0.37 0.48 0.50 0.58 0.76 0.92 0.99 0.93 0.83 0.68 0.69 0.84 0.91 0.92
0.21 0.18 0.20 0.21 0.21 0.19 0.19 0.20 0.20 0.20 0.24 0.25 0.22 0.20 0.20 0.15 0.10 0.09 0.11 0.17 0.20 0.20 0.24 0.31 0.31 0.21 0.22 0.19 0.23 0.36 0.48 0.55 0.79 1.09 1.16 1.05 0.91 0.81 0.71 0.67 0.72 0.80 0.89
0.25 0.24 0.23 0.22 0.13 0.12 0.22 0.24 0.21 0.25 0.28 0.26 0.24 0.23 0.20 0.17 0.10 0.06 0.07 0.11 0.14 0.19 0.32 0.33 0.31 0.27 0.23 0.23 0.30 0.44 0.53 0.71 0.98 1.17 1.10 0.91 0.73 0.62 0.56 0.51 0.53 0.60 0.69
0.36 0.33 0.26 0.20 0.16 0.14 0.19 0.22 0.23 0.25 0.23 0.18 0.18 0.17 0.15 0.17 0.12 0.04 0.04 0.07 0.11 0.16 0.27 0.31 0.31 0.30 0.32 0.46 0.52 0.61 0.71 0.89 1.07 1.05 0.90 0.78 0.64 0.55 0.49 0.47 0.46 0.50 0.51
0.43 0.37 0.29 0.26 0.21 0.18 0.16 0.13 0.17 0.18 0.17 0.15 0.14 0.14 0.15 0.16 0.12 0.08 0.08 0.11 0.15 0.18 0.27 0.38 0.47 0.51 0.55 0.66 0.73 0.81 0.88 0.96 0.92 0.81 0.71 0.65 0.56 0.50 0.47 0.43 0.44 0.46 0.49
0.38 0.33 0.27 0.21 0.19 0.20 0.15 0.07 0.06 0.07 0.04 0.07 0.09 0.09 0.14 0.14 0.09 0.09 0.11 0.13 0.19 0.24 0.27 0.43 0.62 0.67 0.71 0.76 0.76 0.80 0.83 0.79 0.78 0.72 0.65 0.58 0.51 0.48 0.46 0.43 0.44 0.42 0.46
0.31 0.28 0.21 0.16 0.14 0.14 0.15 0.12 0.04 0.01 0.01 0.01 0.03 0.05 0.06 0.09 0.08 0.07 0.09 0.14 0.19 0.26 0.32 0.51 0.68 0.71 0.72 0.73 0.70 0.69 0.70 0.66 0.62 0.61 0.60 0.56 0.51 0.48 0.46 0.43 0.42 0.42 0.45
0.22 0.20 0.14 0.12 0.12 0.13 0.16 0.23 0.24 0.12 0.03 0.02 0.02 0.04 0.06 0.07 0.07 0.07 0.09 0.13 0.17 0.24 0.32 0.53 0.69 0.79 0.79 0.72 0.65 0.63 0.67 0.68 0.64 0.61 0.56 0.53 0.47 0.43 0.41 0.39 0.37 0.36 0.38
0.11 0.10 0.08 0.11 0.09 0.09 0.09 0.13 0.22 0.27 0.23 0.16 0.08 0.05 0.06 0.08 0.10 0.10 0.11 0.15 0.21 0.26 0.38 0.52 0.64 0.69 0.70 0.70 0.64 0.61 0.65 0.67 0.64 0.57 0.51 0.48 0.43 0.38 0.36 0.37 0.34 0.29 0.28
0.08 0.09 0.07 0.06 0.06 0.05 0.06 0.08 0.11 0.16 0.22 0.23 0.19 0.12 0.09 0.11 0.14 0.16 0.16 0.19 0.25 0.30 0.36 0.45 0.53 0.54 0.52 0.52 0.51 0.51 0.55 0.59 0.54 0.45 0.42 0.42 0.38 0.33 0.33 0.34 0.28 0.19 0.20
0.07 0.04 0.03 0.03 0.04 0.04 0.04 0.06 0.08 0.11 0.16 0.21 0.19 0.15 0.14 0.21 0.28 0.27 0.20 0.18 0.18 0.22 0.29 0.37 0.43 0.41 0.38 0.37 0.34 0.33 0.37 0.39 0.37 0.34 0.32 0.31 0.31 0.31 0.28 0.26 0.23 0.20 0.20
0.04 0.02 0.01 0.01 0.03 0.04 0.03 0.03 0.03 0.06 0.11 0.15 0.13 0.10 0.15 0.22 0.30 0.31 0.29 0.26 0.24 0.23 0.24 0.26 0.30 0.33 0.32 0.29 0.25 0.23 0.24 0.25 0.25 0.26 0.27 0.27 0.27 0.26 0.22 0.18 0.15 0.12 0.12
0.02 0.02 0.01 0.02 0.02 0.02 0.01 0.01 0.01 0.03 0.07 0.10 0.11 0.10 0.14 0.18 0.22 0.24 0.29 0.33 0.32 0.30 0.26 0.23 0.23 0.26 0.30 0.29 0.23 0.19 0.19 0.20 0.22 0.25 0.27 0.26 0.24 0.19 0.15 0.13 0.10 0.08 0.07
0.01 0.01 0.01 0.01 0.01 0.00 0.00 0.00 0.01 0.01 0.04 0.06 0.08 0.10 0.12 0.16 0.19 0.21 0.25 0.30 0.33 0.31 0.27 0.23 0.23 0.26 0.28 0.28 0.25 0.19 0.16 0.16 0.18 0.20 0.25 0.26 0.22 0.18 0.13 0.11 0.07 0.07 0.06
0.00 0.00 0.00 0.00 0.00 0.00 0.00 0.00 0.00 0.01 0.01 0.02 0.05 0.07 0.10 0.15 0.16 0.17 0.21 0.26 0.29 0.31 0.30 0.28 0.27 0.27 0.26 0.26 0.22 0.14 0.12 0.13 0.14 0.16 0.21 0.23 0.19 0.15 0.11 0.10 0.09 0.09 0.08
0.00 0.00 0.00 0.00 0.00 0.00 0.00 0.00 0.00 0.01 0.01 0.01 0.02 0.03 0.05 0.08 0.10 0.11 0.15 0.19 0.22 0.25 0.25 0.24 0.25 0.23 0.21 0.18 0.15 0.11 0.11 0.13 0.14 0.15 0.17 0.18 0.16 0.14 0.12 0.11 0.09 0.08 0.07
0.00 0.00 0.00 0.00 0.00 0.00 0.00 0.01 0.01 0.01 0.01 0.02 0.02 0.03 0.03 0.04 0.06 0.08 0.09 0.10 0.12 0.17 0.20 0.22 0.21 0.19 0.14 0.11 0.11 0.11 0.11 0.09 0.09 0.10 0.13 0.17 0.15 0.13 0.12 0.11 0.08 0.07 0.06

GEFSGL_prec_meanprecacc_162.txt.gz
Total_Precipitation_Accumulation
0.60 0.60 0.55 0.52 0.49 0.44 0.42 0.40 0.37 0.35 0.33 0.31 0.28 0.25 0.24 0.24 0.26 0.31 0.34 0.35 0.37 0.38 0.38 0.39 0.42 0.45 0.49 0.47 0.49 0.54 0.61 0.69 0.79 0.71 0.57 0.54 0.53 0.52 0.53 0.51 0.47 0.43 0.41
0.50 0.46 0.42 0.39 0.36 0.34 0.32 0.30 0.26 0.25 0.24 0.23 0.23 0.22 0.19 0.20 0.24 0.28 0.28 0.29 0.33 0.36 0.36 0.35 0.36 0.39 0.43 0.40 0.42 0.44 0.48 0.55 0.66 0.70 0.60 0.51 0.47 0.46 0.46 0.44 0.34 0.31 0.33
0.45 0.44 0.42 0.37 0.33 0.31 0.30 0.27 0.24 0.23 0.22 0.19 0.18 0.18 0.17 0.17 0.20 0.22 0.23 0.26 0.29 0.32 0.30 0.29 0.31 0.33 0.36 0.33 0.35 0.36 0.39 0.43 0.52 0.57 0.50 0.43 0.37 0.34 0.40 0.40 0.35 0.40 0.27
0.46 0.48 0.49 0.48 0.42 0.37 0.33 0.29 0.25 0.21 0.19 0.17 0.16 0.16 0.16 0.15 0.15 0.16 0.16 0.20 0.25 0.25 0.22 0.24 0.27 0.27 0.27 0.30 0.30 0.33 0.37 0.43 0.47 0.48 0.43 0.36 0.34 0.31 0.42 0.50 0.47 0.39 0.30
0.43 0.44 0.45 0.45 0.43 0.37 0.33 0.31 0.28 0.24 0.21 0.21 0.19 0.17 0.16 0.13 0.11 0.12 0.14 0.15 0.20 0.21 0.20 0.19 0.20 0.21 0.24 0.26 0.28 0.32 0.38 0.46 0.48 0.51 0.47 0.42 0.39 0.45 0.52 0.51 0.48 0.37 0.30
0.45 0.44 0.40 0.36 0.33 0.29 0.26 0.23 0.22 0.21 0.21 0.20 0.19 0.18 0.16 0.14 0.15 0.15 0.14 0.16 0.18 0.21 0.22 0.19 0.17 0.16 0.17 0.19 0.22 0.27 0.36 0.46 0.53 0.60 0.57 0.55 0.50 0.56 0.62 0.60 0.61 0.57 0.49
0.51 0.46 0.42 0.38 0.33 0.25 0.20 0.21 0.21 0.22 0.22 0.19 0.16 0.16 0.17 0.15 0.14 0.15 0.15 0.16 0.19 0.25 0.26 0.25 0.20 0.18 0.23 0.26 0.23 0.20 0.26 0.34 0.49 0.66 0.73 0.67 0.64 0.69 0.78 0.76 0.72 0.71 0.64
0.50 0.44 0.37 0.35 0.31 0.26 0.22 0.23 0.21 0.22 0.23 0.22 0.18 0.17 0.19 0.15 0.15 0.16 0.16 0.20 0.22 0.23 0.23 0.24 0.29 0.30 0.25 0.23 0.21 0.24 0.33 0.44 0.52 0.57 0.67 0.64 0.59 0.63 0.75 0.78 0.72 0.66 0.61
0.45 0.37 0.31 0.28 0.27 0.24 0.22 0.21 0.20 0.22 0.23 0.22 0.19 0.19 0.23 0.22 0.19 0.19 0.21 0.25 0.23 0.20 0.17 0.18 0.22 0.27 0.22 0.21 0.25 0.34 0.43 0.51 0.44 0.53 0.60 0.66 0.71 0.68 0.64 0.66 0.79 0.83 0.81
0.35 0.26 0.24 0.24 0.23 0.20 0.18 0.18 0.18 0.20 0.23 0.20 0.20 0.20 0.22 0.22 0.16 0.16 0.20 0.24 0.25 0.21 0.21 0.23 0.21 0.19 0.21 0.22 0.29 0.40 0.51 0.53 0.60 0.77 0.93 1.00 0.94 0.85 0.70 0.72 0.88 0.94 0.95
0.24 0.21 0.22 0.24 0.24 0.21 0.20 0.21 0.21 0.21 0.26 0.26 0.23 0.22 0.21 0.17 0.13 0.11 0.13 0.18 0.21 0.21 0.26 0.32 0.32 0.23 0.23 0.20 0.26 0.38 0.50 0.57 0.80 1.12 1.18 1.07 0.93 0.83 0.73 0.69 0.74 0.82 0.91
0.30 0.28 0.26 0.24 0.15 0.13 0.23 0.25 0.22 0.26 0.29 0.27 0.26 0.24 0.21 0.18 0.11 0.07 0.08 0.11 0.15 0.21 0.34 0.34 0.32 0.29 0.25 0.25 0.31 0.47 0.54 0.72 1.00 1.20 1.12 0.93 0.76 0.65 0.58 0.52 0.55 0.61 0.70
0.41 0.38 0.30 0.24 0.20 0.17 0.21 0.23 0.24 0.26 0.24 0.19 0.19 0.18 0.16 0.18 0.13 0.05 0.05 0.07 0.12 0.17 0.29 0.33 0.33 0.31 0.34 0.48 0.55 0.65 0.73 0.91 1.08 1.06 0.92 0.80 0.67 0.56 0.50 0.49 0.47 0.51 0.52
0.47 0.40 0.33 0.29 0.24 0.20 0.18 0.15 0.18 0.18 0.18 0.16 0.15 0.15 0.15 0.16 0.12 0.08 0.08 0.12 0.16 0.19 0.28 0.40 0.49 0.53 0.57 0.68 0.75 0.84 0.91 0.98 0.93 0.82 0.72 0.66 0.57 0.51 0.49 0.45 0.45 0.47 0.50
0.44 0.38 0.33 0.25 0.22 0.23 0.17 0.08 0.06 0.07 0.05 0.08 0.10 0.10 0.14 0.15 0.09 0.10 0.11 0.14 0.20 0.25 0.28 0.44 0.62 0.68 0.72 0.78 0.78 0.82 0.84 0.81 0.79 0.73 0.67 0.59 0.52 0.49 0.47 0.44 0.46 0.43 0.46
0.33 0.31 0.25 0.20 0.19 0.17 0.17 0.13 0.04 0.01 0.01 0.02 0.03 0.05 0.07 0.10 0.08 0.07 0.10 0.14 0.20 0.27 0.33 0.52 0.68 0.71 0.73 0.74 0.71 0.70 0.71 0.67 0.63 0.62 0.61 0.57 0.52 0.49 0.47 0.44 0.43 0.43 0.46
0.23 0.21 0.16 0.14 0.15 0.16 0.18 0.24 0.25 0.12 0.03 0.02 0.03 0.04 0.06 0.07 0.08 0.07 0.09 0.13 0.17 0.24 0.33 0.53 0.69 0.79 0.79 0.72 0.65 0.63 0.67 0.68 0.65 0.62 0.57 0.54 0.48 0.43 0.42 0.40 0.38 0.37 0.39
0.12 0.11 0.10 0.12 0.10 0.10 0.10 0.14 0.23 0.28 0.24 0.17 0.08 0.05 0.06 0.08 0.10 0.10 0.11 0.15 0.21 0.26 0.38 0.52 0.64 0.69 0.70 0.70 0.65 0.62 0.65 0.67 0.64 0.57 0.52 0.49 0.43 0.39 0.36 0.38 0.35 0.29 0.29
0.08 0.09 0.08 0.07 0.06 0.06 0.06 0.08 0.12 0.17 0.22 0.23 0.19 0.12 0.09 0.11 0.15 0.16 0.16 0.19 0.25 0.30 0.37 0.45 0.53 0.54 0.52 0.52 0.51 0.51 0.55 0.59 0.54 0.46 0.42 0.42 0.39 0.34 0.34 0.34 0.29 0.20 0.21
0.08 0.04 0.03 0.04 0.04 0.04 0.04 0.06 0.08 0.11 0.17 0.21 0.19 0.15 0.14 0.21 0.28 0.27 0.20 0.18 0.18 0.22 0.29 0.37 0.43 0.41 0.38 0.37 0.34 0.34 0.37 0.39 0.37 0.34 0.33 0.32 0.32 0.31 0.29 0.26 0.24 0.21 0.20
0.04 0.03 0.01 0.02 0.03 0.04 0.03 0.03 0.04 0.06 0.11 0.15 0.13 0.10 0.15 0.23 0.30 0.31 0.29 0.26 0.24 0.23 0.24 0.26 0.30 0.33 0.32 0.29 0.26 0.23 0.24 0.25 0.26 0.27 0.27 0.28 0.28 0.27 0.23 0.19 0.16 0.13 0.13
0.02 0.02 0.02 0.02 0.03 0.02 0.02 0.01 0.01 0.03 0.07 0.11 0.11 0.10 0.14 0.18 0.23 0.25 0.30 0.34 0.33 0.30 0.27 0.25 0.25 0.28 0.31 0.29 0.24 0.20 0.19 0.21 0.23 0.26 0.28 0.28 0.25 0.21 0.17 0.14 0.11 0.09 0.09
0.01 0.01 0.01 0.01 0.01 0.00 0.00 0.01 0.01 0.02 0.04 0.07 0.08 0.10 0.12 0.17 0.19 0.22 0.26 0.32 0.35 0.33 0.29 0.26 0.26 0.29 0.30 0.30 0.27 0.21 0.17 0.17 0.18 0.21 0.26 0.26 0.23 0.18 0.14 0.12 0.09 0.09 0.08
0.00 0.00 0.00 0.00 0.00 0.00 0.00 0.01 0.01 0.01 0.02 0.03 0.05 0.08 0.11 0.15 0.16 0.18 0.23 0.27 0.31 0.33 0.32 0.30 0.30 0.30 0.29 0.27 0.24 0.16 0.14 0.15 0.15 0.17 0.21 0.24 0.20 0.16 0.12 0.11 0.10 0.10 0.10
0.00 0.00 0.00 0.00 0.00 0.00 0.00 0.00 0.01 0.01 0.01 0.01 0.03 0.04 0.06 0.08 0.11 0.12 0.16 0.21 0.24 0.27 0.27 0.27 0.27 0.25 0.22 0.20 0.17 0.13 0.13 0.15 0.16 0.16 0.18 0.19 0.17 0.15 0.13 0.13 0.11 0.10 0.10
0.00 0.00 0.00 0.00 0.00 0.00 0.01 0.01 0.01 0.02 0.02 0.02 0.02 0.03 0.03 0.04 0.06 0.08 0.10 0.11 0.14 0.19 0.21 0.23 0.23 0.20 0.16 0.13 0.13 0.14 0.14 0.12 0.11 0.12 0.16 0.19 0.18 0.16 0.15 0.14 0.11 0.10 0.09

GEFSGL_prec_meanprecacc_168.txt.gz
Total_Precipitation_Accumulation
0.64 0.63 0.59 0.55 0.52 0.47 0.44 0.43 0.40 0.37 0.35 0.33 0.30 0.28 0.27 0.27 0.30 0.35 0.38 0.38 0.41 0.42 0.42 0.43 0.46 0.49 0.55 0.53 0.56 0.62 0.68 0.78 0.87 0.75 0.61 0.56 0.55 0.54 0.55 0.53 0.49 0.44 0.41
0.55 0.51 0.46 0.41 0.38 0.36 0.34 0.31 0.28 0.27 0.26 0.25 0.24 0.24 0.22 0.23 0.28 0.32 0.32 0.32 0.37 0.40 0.39 0.38 0.40 0.43 0.47 0.45 0.47 0.50 0.55 0.63 0.73 0.75 0.63 0.53 0.49 0.48 0.47 0.45 0.35 0.32 0.33
0.52 0.51 0.47 0.41 0.36 0.35 0.33 0.29 0.25 0.24 0.23 0.20 0.19 0.20 0.20 0.20 0.23 0.25 0.26 0.30 0.33 0.36 0.33 0.32 0.35 0.36 0.39 0.38 0.40 0.42 0.45 0.50 0.59 0.63 0.54 0.45 0.40 0.36 0.41 0.41 0.36 0.41 0.27
0.50 0.53 0.54 0.52 0.45 0.40 0.36 0.33 0.27 0.23 0.21 0.19 0.18 0.19 0.19 0.17 0.17 0.18 0.19 0.23 0.28 0.28 0.26 0.27 0.30 0.29 0.31 0.34 0.35 0.39 0.44 0.49 0.53 0.55 0.48 0.39 0.36 0.33 0.43 0.52 0.48 0.40 0.31
0.46 0.48 0.49 0.47 0.46 0.41 0.36 0.34 0.30 0.26 0.24 0.23 0.21 0.20 0.18 0.15 0.12 0.13 0.16 0.17 0.23 0.24 0.23 0.23 0.23 0.23 0.25 0.28 0.30 0.36 0.44 0.53 0.55 0.59 0.53 0.46 0.42 0.48 0.55 0.53 0.50 0.39 0.31
0.48 0.48 0.43 0.38 0.36 0.33 0.31 0.27 0.24 0.24 0.24 0.23 0.23 0.21 0.18 0.15 0.15 0.16 0.15 0.19 0.21 0.24 0.25 0.23 0.20 0.18 0.18 0.20 0.23 0.28 0.39 0.51 0.61 0.68 0.63 0.60 0.56 0.61 0.66 0.63 0.64 0.60 0.52
0.55 0.50 0.45 0.41 0.36 0.29 0.25 0.25 0.24 0.25 0.25 0.22 0.18 0.19 0.21 0.17 0.15 0.16 0.15 0.18 0.22 0.28 0.31 0.29 0.23 0.19 0.25 0.28 0.24 0.21 0.27 0.35 0.53 0.72 0.79 0.72 0.68 0.74 0.83 0.80 0.76 0.75 0.68
0.55 0.48 0.42 0.40 0.36 0.30 0.28 0.29 0.25 0.25 0.26 0.25 0.21 0.20 0.22 0.18 0.16 0.17 0.17 0.22 0.25 0.26 0.28 0.28 0.33 0.33 0.27 0.26 0.24 0.28 0.36 0.46 0.53 0.60 0.73 0.70 0.63 0.67 0.79 0.82 0.75 0.69 0.65
0.50 0.43 0.38 0.35 0.34 0.30 0.28 0.27 0.24 0.25 0.26 0.25 0.22 0.22 0.25 0.25 0.21 0.22 0.25 0.30 0.29 0.26 0.23 0.22 0.25 0.29 0.24 0.23 0.30 0.40 0.48 0.53 0.46 0.55 0.62 0.68 0.72 0.70 0.66 0.69 0.81 0.85 0.84
0.40 0.33 0.31 0.32 0.30 0.26 0.23 0.23 0.22 0.24 0.26 0.24 0.23 0.24 0.26 0.27 0.19 0.19 0.22 0.27 0.30 0.26 0.26 0.28 0.24 0.21 0.22 0.24 0.32 0.45 0.56 0.57 0.62 0.79 0.95 1.01 0.95 0.87 0.72 0.74 0.91 0.98 0.99
0.28 0.26 0.27 0.29 0.29 0.25 0.24 0.25 0.25 0.25 0.29 0.29 0.27 0.25 0.24 0.19 0.14 0.12 0.13 0.19 0.23 0.24 0.30 0.35 0.34 0.25 0.25 0.23 0.29 0.42 0.53 0.60 0.84 1.15 1.20 1.09 0.95 0.86 0.77 0.73 0.78 0.86 0.95
0.32 0.30 0.29 0.29 0.19 0.17 0.27 0.29 0.26 0.30 0.33 0.32 0.30 0.28 0.24 0.19 0.11 0.07 0.08 0.12 0.15 0.22 0.36 0.36 0.33 0.30 0.26 0.26 0.33 0.49 0.57 0.74 1.02 1.23 1.15 0.96 0.79 0.68 0.62 0.56 0.57 0.63 0.73
0.43 0.42 0.35 0.29 0.25 0.20 0.23 0.26 0.26 0.28 0.26 0.22 0.21 0.20 0.18 0.19 0.14 0.06 0.05 0.08 0.12 0.17 0.30 0.34 0.34 0.33 0.35 0.49 0.57 0.67 0.76 0.94 1.12 1.10 0.96 0.84 0.70 0.60 0.53 0.52 0.49 0.53 0.54
0.50 0.45 0.38 0.35 0.31 0.26 0.23 0.18 0.21 0.20 0.19 0.18 0.17 0.17 0.17 0.17 0.13 0.08 0.08 0.12 0.16 0.19 0.28 0.40 0.50 0.54 0.58 0.69 0.76 0.85 0.93 1.01 0.97 0.86 0.76 0.70 0.60 0.54 0.52 0.48 0.48 0.50 0.52
0.49 0.43 0.37 0.29 0.27 0.29 0.23 0.13 0.11 0.09 0.06 0.09 0.10 0.10 0.15 0.16 0.10 0.11 0.12 0.14 0.20 0.26 0.30 0.46 0.64 0.70 0.75 0.80 0.79 0.82 0.86 0.83 0.81 0.76 0.70 0.62 0.55 0.51 0.49 0.47 0.48 0.46 0.49
0.37 0.34 0.28 0.22 0.21 0.20 0.20 0.17 0.08 0.05 0.04 0.03 0.04 0.05 0.07 0.10 0.09 0.08 0.10 0.15 0.23 0.31 0.36 0.54 0.70 0.74 0.76 0.76 0.72 0.71 0.72 0.69 0.65 0.64 0.63 0.58 0.54 0.50 0.48 0.46 0.45 0.45 0.48
0.26 0.23 0.17 0.14 0.15 0.16 0.19 0.26 0.27 0.15 0.05 0.03 0.04 0.05 0.06 0.08 0.08 0.08 0.10 0.16 0.21 0.28 0.37 0.55 0.70 0.80 0.80 0.73 0.67 0.64 0.69 0.70 0.67 0.64 0.58 0.55 0.49 0.45 0.43 0.42 0.39 0.39 0.41
0.13 0.12 0.11 0.13 0.11 0.10 0.11 0.14 0.24 0.29 0.25 0.18 0.09 0.06 0.06 0.09 0.11 0.11 0.12 0.16 0.23 0.28 0.40 0.54 0.65 0.70 0.71 0.71 0.66 0.63 0.66 0.69 0.66 0.59 0.53 0.50 0.45 0.41 0.39 0.40 0.37 0.32 0.32
0.09 0.10 0.09 0.08 0.07 0.06 0.07 0.08 0.12 0.17 0.22 0.24 0.20 0.13 0.09 0.11 0.15 0.16 0.17 0.19 0.26 0.31 0.37 0.46 0.54 0.55 0.53 0.53 0.52 0.52 0.56 0.60 0.56 0.47 0.43 0.44 0.41 0.36 0.36 0.36 0.31 0.22 0.22
0.08 0.04 0.03 0.04 0.05 0.05 0.05 0.06 0.08 0.11 0.17 0.21 0.20 0.15 0.15 0.22 0.29 0.27 0.21 0.19 0.19 0.23 0.30 0.39 0.45 0.43 0.41 0.39 0.37 0.36 0.39 0.42 0.40 0.37 0.35 0.34 0.34 0.33 0.31 0.28 0.26 0.23 0.22
0.04 0.03 0.01 0.02 0.04 0.05 0.04 0.04 0.05 0.07 0.11 0.16 0.13 0.10 0.16 0.23 0.31 0.32 0.30 0.27 0.25 0.24 0.26 0.28 0.32 0.36 0.35 0.33 0.30 0.27 0.28 0.29 0.30 0.32 0.32 0.32 0.31 0.30 0.25 0.21 0.18 0.15 0.15
0.02 0.02 0.02 0.03 0.03 0.03 0.02 0.01 0.02 0.04 0.08 0.11 0.12 0.10 0.15 0.19 0.24 0.26 0.31 0.35 0.35 0.33 0.30 0.28 0.28 0.31 0.34 0.34 0.28 0.25 0.25 0.26 0.28 0.30 0.32 0.31 0.28 0.23 0.19 0.16 0.13 0.11 0.11
0.01 0.01 0.01 0.01 0.01 0.00 0.00 0.01 0.01 0.02 0.05 0.07 0.09 0.11 0.13 0.18 0.21 0.23 0.28 0.34 0.37 0.37 0.33 0.30 0.30 0.33 0.34 0.35 0.32 0.26 0.23 0.22 0.23 0.25 0.30 0.31 0.27 0.22 0.17 0.14 0.11 0.11 0.10
0.00 0.00 0.00 0.00 0.00 0.00 0.00 0.01 0.01 0.01 0.02 0.03 0.05 0.09 0.12 0.17 0.18 0.21 0.26 0.31 0.35 0.37 0.36 0.34 0.33 0.34 0.34 0.34 0.30 0.21 0.17 0.18 0.18 0.19 0.24 0.27 0.24 0.19 0.15 0.14 0.13 0.13 0.13
0.00 0.00 0.00 0.00 0.00 0.00 0.00 0.01 0.01 0.01 0.01 0.02 0.03 0.05 0.07 0.10 0.13 0.15 0.20 0.25 0.29 0.32 0.31 0.31 0.31 0.28 0.26 0.25 0.23 0.18 0.17 0.17 0.17 0.18 0.20 0.22 0.21 0.19 0.18 0.18 0.16 0.14 0.14
0.00 0.00 0.00 0.00 0.00 0.00 0.01 0.01 0.02 0.02 0.03 0.03 0.03 0.03 0.04 0.05 0.08 0.11 0.13 0.15 0.19 0.23 0.25 0.26 0.24 0.23 0.20 0.17 0.17 0.17 0.16 0.13 0.12 0.14 0.17 0.21 0.20 0.19 0.20 0.20 0.17 0.16 0.15